Wetterdaten: Dienstag, 31.10.2023
Datum Zeit Temp. Aussen Temp. o. S. Temp +5cm Feuchte Auss Luftdruck Regen Sonnenschein Regendauer Solar Windben Empfang
31.10.2023 00:00 12,6 C 12,2 C 8,9 C 99 % 995,0 hPa 0,0 l/m 0 min 0 min 0 W/m 25,7 km/h (4 Bft) 97,87 %
31.10.2023 00:02 12,6 C 12,2 C 8,9 C 99 % 995,1 hPa 0,0 l/m 0 min 0 min 0 W/m 38,6 km/h (5 Bft) 97,30 %
31.10.2023 00:04 12,5 C 12,2 C 8,9 C 99 % 995,1 hPa 0,0 l/m 0 min 0 min 0 W/m 25,7 km/h (4 Bft) 98,00 %
31.10.2023 00:08 12,4 C 12,2 C 8,3 C 99 % 995,2 hPa 0,0 l/m 0 min 0 min 0 W/m 29,0 km/h (5 Bft) 97,85 %
31.10.2023 00:10 12,3 C 11,7 C 8,3 C 99 % 995,2 hPa 0,0 l/m 0 min 0 min 0 W/m 16,1 km/h (3 Bft) 95,74 %
31.10.2023 00:12 12,3 C 11,7 C 8,3 C 99 % 995,2 hPa 0,0 l/m 0 min 0 min 0 W/m 38,6 km/h (5 Bft) 97,87 %
31.10.2023 00:14 12,2 C 11,7 C 8,3 C 99 % 995,3 hPa 0,0 l/m 0 min 0 min 0 W/m 22,5 km/h (4 Bft) 95,74 %
31.10.2023 00:16 12,0 C 11,7 C 7,8 C 98 % 995,4 hPa 0,0 l/m 0 min 0 min 0 W/m 35,4 km/h (5 Bft) 97,87 %
31.10.2023 00:18 11,9 C 11,1 C 7,8 C 98 % 995,3 hPa 0,0 l/m 0 min 0 min 0 W/m 19,3 km/h (3 Bft) 100,00 %
31.10.2023 00:20 11,8 C 11,1 C 7,8 C 98 % 995,4 hPa 0,0 l/m 0 min 0 min 0 W/m 35,4 km/h (5 Bft) 97,83 %
31.10.2023 00:22 11,6 C 11,1 C 7,8 C 98 % 995,6 hPa 0,0 l/m 0 min 0 min 0 W/m 29,0 km/h (5 Bft) 100,00 %
31.10.2023 00:24 11,6 C 11,1 C 7,8 C 98 % 995,6 hPa 0,0 l/m 0 min 0 min 0 W/m 19,3 km/h (3 Bft) 97,87 %
31.10.2023 00:26 11,5 C 11,1 C 7,8 C 98 % 995,7 hPa 0,0 l/m 0 min 0 min 0 W/m 25,7 km/h (4 Bft) 100,00 %
31.10.2023 00:28 11,4 C 10,6 C 7,2 C 98 % 995,8 hPa 0,0 l/m 0 min 0 min 0 W/m 22,5 km/h (4 Bft) 100,00 %
31.10.2023 00:30 11,3 C 10,6 C 7,2 C 98 % 995,9 hPa 0,0 l/m 0 min 0 min 0 W/m 25,7 km/h (4 Bft) 97,87 %
31.10.2023 00:32 11,3 C 10,6 C 7,2 C 97 % 996,0 hPa 0,0 l/m 0 min 0 min 0 W/m 22,5 km/h (4 Bft) 100,00 %
31.10.2023 00:34 11,2 C 10,6 C 7,2 C 97 % 996,0 hPa 0,0 l/m 0 min 0 min 0 W/m 25,7 km/h (4 Bft) 100,00 %
31.10.2023 00:36 11,2 C 10,6 C 7,2 C 97 % 996,0 hPa 0,0 l/m 0 min 0 min 0 W/m 22,5 km/h (4 Bft) 100,00 %
31.10.2023 00:38 11,2 C 10,6 C 7,2 C 97 % 996,1 hPa 0,0 l/m 0 min 0 min 0 W/m 19,3 km/h (3 Bft) 97,87 %
31.10.2023 00:40 11,1 C 10,6 C 7,2 C 97 % 996,3 hPa 0,0 l/m 0 min 0 min 0 W/m 19,3 km/h (3 Bft) 97,87 %
31.10.2023 00:42 11,1 C 10,6 C 7,2 C 97 % 996,2 hPa 0,0 l/m 0 min 0 min 0 W/m 16,1 km/h (3 Bft) 100,00 %
31.10.2023 00:44 11,1 C 10,6 C 7,2 C 97 % 996,2 hPa 0,0 l/m 0 min 0 min 0 W/m 48,3 km/h (6 Bft) 100,00 %
31.10.2023 00:46 11,1 C 10,6 C 7,2 C 97 % 996,1 hPa 0,0 l/m 0 min 0 min 0 W/m 22,5 km/h (4 Bft) 100,00 %
31.10.2023 00:48 11,1 C 10,6 C 7,2 C 97 % 996,2 hPa 0,0 l/m 0 min 0 min 0 W/m 16,1 km/h (3 Bft) 100,00 %
31.10.2023 00:50 11,0 C 10,6 C 7,2 C 97 % 996,2 hPa 0,0 l/m 0 min 0 min 0 W/m 32,2 km/h (5 Bft) 97,87 %
31.10.2023 00:52 11,0 C 10,6 C 7,2 C 97 % 996,3 hPa 0,0 l/m 0 min 0 min 0 W/m 25,7 km/h (4 Bft) 100,00 %
31.10.2023 00:54 11,0 C 10,6 C 7,2 C 97 % 996,4 hPa 0,0 l/m 0 min 0 min 0 W/m 25,7 km/h (4 Bft) 97,87 %
31.10.2023 00:56 11,0 C 10,6 C 7,2 C 97 % 996,4 hPa 0,0 l/m 0 min 0 min 0 W/m 19,3 km/h (3 Bft) 95,74 %
31.10.2023 00:58 11,0 C 10,6 C 7,2 C 97 % 996,4 hPa 0,0 l/m 0 min 0 min 0 W/m 19,3 km/h (3 Bft) 97,87 %
31.10.2023 01:00 11,0 C 10,6 C 7,2 C 97 % 996,5 hPa 0,0 l/m 0 min 0 min 0 W/m 25,7 km/h (4 Bft) 97,83 %
31.10.2023 01:02 11,0 C 10,6 C 7,2 C 96 % 996,5 hPa 0,0 l/m 0 min 0 min 0 W/m 16,1 km/h (3 Bft) 97,87 %
31.10.2023 01:04 11,0 C 10,6 C 7,2 C 96 % 996,7 hPa 0,0 l/m 0 min 0 min 0 W/m 25,7 km/h (4 Bft) 93,88 %
31.10.2023 01:06 11,0 C 10,6 C 7,2 C 96 % 996,7 hPa 0,0 l/m 0 min 0 min 0 W/m 16,1 km/h (3 Bft) 97,87 %
31.10.2023 01:08 10,9 C 10,6 C 7,2 C 96 % 996,8 hPa 0,0 l/m 0 min 0 min 0 W/m 29,0 km/h (5 Bft) 97,87 %
31.10.2023 01:10 10,9 C 10,6 C 6,7 C 96 % 996,7 hPa 0,0 l/m 0 min 0 min 0 W/m 19,3 km/h (3 Bft) 56,52 %
31.10.2023 01:12 10,9 C 10,6 C 7,2 C 96 % 996,8 hPa 0,0 l/m 0 min 0 min 0 W/m 19,3 km/h (3 Bft) 97,87 %
31.10.2023 01:14 10,9 C 10,6 C 7,2 C 96 % 996,9 hPa 0,0 l/m 0 min 0 min 0 W/m 22,5 km/h (4 Bft) 97,87 %
31.10.2023 01:16 10,8 C 10,0 C 6,7 C 96 % 996,9 hPa 0,0 l/m 0 min 0 min 0 W/m 25,7 km/h (4 Bft) 95,74 %
31.10.2023 01:18 10,8 C 10,0 C 6,7 C 96 % 997,1 hPa 0,0 l/m 0 min 0 min 0 W/m 22,5 km/h (4 Bft) 97,87 %
31.10.2023 01:20 10,7 C 10,0 C 6,7 C 96 % 997,0 hPa 0,0 l/m 0 min 0 min 0 W/m 25,7 km/h (4 Bft) 95,65 %
31.10.2023 01:22 10,7 C 10,0 C 6,7 C 96 % 997,2 hPa 0,0 l/m 0 min 0 min 0 W/m 29,0 km/h (5 Bft) 97,87 %
31.10.2023 01:24 10,7 C 10,0 C 6,7 C 96 % 997,2 hPa 0,0 l/m 0 min 0 min 0 W/m 19,3 km/h (3 Bft) 95,74 %
31.10.2023 01:26 10,7 C 10,0 C 6,7 C 95 % 997,2 hPa 0,0 l/m 0 min 0 min 0 W/m 19,3 km/h (3 Bft) 97,87 %
31.10.2023 01:28 10,7 C 10,0 C 6,7 C 95 % 997,1 hPa 0,0 l/m 0 min 0 min 0 W/m 16,1 km/h (3 Bft) 97,87 %
31.10.2023 01:30 10,7 C 10,0 C 6,7 C 95 % 997,3 hPa 0,0 l/m 0 min 0 min 0 W/m 16,1 km/h (3 Bft) 95,74 %
31.10.2023 01:32 10,7 C 10,0 C 6,7 C 95 % 997,4 hPa 0,0 l/m 0 min 0 min 0 W/m 22,5 km/h (4 Bft) 100,00 %
31.10.2023 01:34 10,7 C 10,0 C 6,7 C 95 % 997,4 hPa 0,0 l/m 0 min 0 min 0 W/m 12,9 km/h (3 Bft) 92,86 %
31.10.2023 01:36 10,7 C 10,0 C 6,7 C 95 % 997,4 hPa 0,0 l/m 0 min 0 min 0 W/m 19,3 km/h (3 Bft) 93,62 %
31.10.2023 01:38 10,7 C 10,0 C 6,7 C 95 % 997,5 hPa 0,0 l/m 0 min 0 min 0 W/m 16,1 km/h (3 Bft) 95,74 %
31.10.2023 01:40 10,6 C 10,0 C 6,7 C 95 % 997,4 hPa 0,0 l/m 0 min 0 min 0 W/m 12,9 km/h (3 Bft) 95,74 %
31.10.2023 01:42 10,6 C 10,0 C 6,7 C 95 % 997,5 hPa 0,0 l/m 0 min 0 min 0 W/m 22,5 km/h (4 Bft) 95,74 %
31.10.2023 01:44 10,7 C 10,0 C 6,7 C 95 % 997,5 hPa 0,0 l/m 0 min 0 min 0 W/m 16,1 km/h (3 Bft) 95,74 %
31.10.2023 01:46 10,7 C 10,0 C 6,7 C 95 % 997,5 hPa 0,0 l/m 0 min 0 min 0 W/m 6,4 km/h (2 Bft) 93,62 %
31.10.2023 01:48 10,7 C 10,0 C 6,7 C 95 % 997,5 hPa 0,0 l/m 0 min 0 min 0 W/m 19,3 km/h (3 Bft) 93,48 %
31.10.2023 01:50 10,7 C 10,0 C 6,7 C 95 % 997,5 hPa 0,0 l/m 0 min 0 min 0 W/m 9,7 km/h (2 Bft) 95,74 %
31.10.2023 01:52 10,7 C 10,0 C 6,7 C 95 % 997,6 hPa 0,0 l/m 0 min 0 min 0 W/m 12,9 km/h (3 Bft) 95,74 %
31.10.2023 01:54 10,7 C 10,0 C 6,7 C 95 % 997,6 hPa 0,0 l/m 0 min 0 min 0 W/m 25,7 km/h (4 Bft) 93,62 %
31.10.2023 01:56 10,7 C 10,0 C 6,7 C 95 % 997,7 hPa 0,0 l/m 0 min 0 min 0 W/m 22,5 km/h (4 Bft) 95,74 %
31.10.2023 01:58 10,7 C 10,0 C 6,7 C 95 % 997,7 hPa 0,0 l/m 0 min 0 min 0 W/m 6,4 km/h (2 Bft) 95,74 %
31.10.2023 02:00 10,7 C 10,0 C 6,7 C 95 % 997,8 hPa 0,0 l/m 0 min 0 min 0 W/m 6,4 km/h (2 Bft) 95,74 %
31.10.2023 02:02 10,7 C 10,0 C 6,7 C 95 % 997,8 hPa 0,0 l/m 0 min 0 min 0 W/m 16,1 km/h (3 Bft) 95,74 %
31.10.2023 02:04 10,7 C 10,0 C 6,7 C 95 % 997,8 hPa 0,0 l/m 0 min 0 min 0 W/m 16,1 km/h (3 Bft) 93,48 %
31.10.2023 02:06 10,6 C 10,0 C 6,7 C 95 % 997,9 hPa 0,0 l/m 0 min 0 min 0 W/m 16,1 km/h (3 Bft) 95,74 %
31.10.2023 02:08 10,6 C 10,0 C 6,7 C 95 % 998,0 hPa 0,0 l/m 0 min 0 min 0 W/m 29,0 km/h (5 Bft) 97,73 %
31.10.2023 02:10 10,6 C 10,0 C 6,7 C 95 % 997,9 hPa 0,0 l/m 0 min 0 min 0 W/m 16,1 km/h (3 Bft) 95,24 %
31.10.2023 02:14 10,6 C 10,0 C 6,7 C 95 % 998,0 hPa 0,0 l/m 0 min 0 min 0 W/m 6,4 km/h (2 Bft) 100,00 %
31.10.2023 02:16 10,6 C 10,0 C 6,7 C 95 % 998,1 hPa 0,0 l/m 0 min 0 min 0 W/m 22,5 km/h (4 Bft) 95,74 %
31.10.2023 02:18 10,6 C 10,0 C 6,7 C 95 % 998,1 hPa 0,0 l/m 0 min 0 min 0 W/m 12,9 km/h (3 Bft) 97,87 %
31.10.2023 02:20 10,6 C 10,0 C 6,7 C 95 % 998,1 hPa 0,0 l/m 0 min 0 min 0 W/m 12,9 km/h (3 Bft) 97,87 %
31.10.2023 02:22 10,6 C 10,0 C 6,7 C 95 % 998,1 hPa 0,0 l/m 0 min 0 min 0 W/m 19,3 km/h (3 Bft) 95,74 %
31.10.2023 02:24 10,6 C 10,0 C 6,7 C 95 % 998,1 hPa 0,0 l/m 0 min 0 min 0 W/m 12,9 km/h (3 Bft) 95,74 %
31.10.2023 02:26 10,6 C 10,0 C 6,7 C 95 % 998,1 hPa 0,0 l/m 0 min 0 min 0 W/m 12,9 km/h (3 Bft) 100,00 %
31.10.2023 02:28 10,6 C 10,0 C 6,7 C 95 % 998,2 hPa 0,0 l/m 0 min 0 min 0 W/m 16,1 km/h (3 Bft) 97,87 %
31.10.2023 02:30 10,6 C 10,0 C 6,7 C 95 % 998,2 hPa 0,0 l/m 0 min 0 min 0 W/m 16,1 km/h (3 Bft) 100,00 %
31.10.2023 02:32 10,6 C 10,0 C 6,7 C 95 % 998,2 hPa 0,0 l/m 0 min 0 min 0 W/m 16,1 km/h (3 Bft) 95,74 %
31.10.2023 02:34 10,6 C 10,0 C 6,7 C 95 % 998,2 hPa 0,0 l/m 0 min 0 min 0 W/m 12,9 km/h (3 Bft) 93,62 %
31.10.2023 02:36 10,5 C 10,0 C 6,7 C 95 % 998,2 hPa 0,0 l/m 0 min 0 min 0 W/m 6,4 km/h (2 Bft) 97,87 %
31.10.2023 02:38 10,5 C 10,0 C 6,7 C 95 % 998,2 hPa 0,0 l/m 0 min 0 min 0 W/m 12,9 km/h (3 Bft) 100,00 %
31.10.2023 02:40 10,5 C 10,0 C 6,7 C 95 % 998,2 hPa 0,0 l/m 0 min 0 min 0 W/m 9,7 km/h (2 Bft) 100,00 %
31.10.2023 02:42 10,6 C 10,0 C 6,7 C 95 % 998,2 hPa 0,0 l/m 0 min 2 min 0 W/m 12,9 km/h (3 Bft) 97,87 %
31.10.2023 02:44 10,5 C 10,0 C 6,7 C 95 % 998,3 hPa 0,0 l/m 0 min 2 min 0 W/m 16,1 km/h (3 Bft) 100,00 %
31.10.2023 02:46 10,5 C 9,4 C 6,7 C 95 % 998,2 hPa 0,0 l/m 0 min 2 min 0 W/m 12,9 km/h (3 Bft) 100,00 %
31.10.2023 02:48 10,5 C 9,4 C 6,7 C 95 % 998,2 hPa 0,0 l/m 0 min 2 min 0 W/m 12,9 km/h (3 Bft) 100,00 %
31.10.2023 02:50 10,5 C 9,4 C 6,7 C 95 % 998,3 hPa 0,0 l/m 0 min 0 min 0 W/m 16,1 km/h (3 Bft) 100,00 %
31.10.2023 02:52 10,5 C 9,4 C 6,7 C 96 % 998,2 hPa 0,0 l/m 0 min 0 min 0 W/m 6,4 km/h (2 Bft) 100,00 %
31.10.2023 02:54 10,4 C 9,4 C 6,7 C 96 % 998,3 hPa 0,0 l/m 0 min 0 min 0 W/m 12,9 km/h (3 Bft) 100,00 %
31.10.2023 02:56 10,5 C 9,4 C 6,7 C 96 % 998,3 hPa 0,0 l/m 0 min 0 min 0 W/m 12,9 km/h (3 Bft) 100,00 %
31.10.2023 02:58 10,4 C 9,4 C 6,7 C 96 % 998,3 hPa 0,0 l/m 0 min 0 min 0 W/m 12,9 km/h (3 Bft) 97,87 %
31.10.2023 03:00 10,4 C 9,4 C 6,7 C 96 % 998,3 hPa 0,0 l/m 0 min 0 min 0 W/m 6,4 km/h (2 Bft) 44,44 %
31.10.2023 03:02 10,4 C 10,0 C 6,7 C 96 % 998,3 hPa 0,0 l/m 0 min 0 min 0 W/m 12,9 km/h (3 Bft) 100,00 %
31.10.2023 03:04 10,4 C 10,0 C 6,7 C 96 % 998,3 hPa 0,0 l/m 0 min 0 min 0 W/m 12,9 km/h (3 Bft) 100,00 %
31.10.2023 03:06 10,4 C 10,0 C 6,7 C 96 % 998,3 hPa 0,0 l/m 0 min 0 min 0 W/m 6,4 km/h (2 Bft) 100,00 %
31.10.2023 03:08 10,4 C 10,0 C 6,7 C 96 % 998,2 hPa 0,0 l/m 0 min 0 min 0 W/m 9,7 km/h (2 Bft) 97,87 %
31.10.2023 03:10 10,4 C 10,0 C 6,7 C 96 % 998,3 hPa 0,0 l/m 0 min 0 min 0 W/m 6,4 km/h (2 Bft) 100,00 %
31.10.2023 03:12 10,4 C 10,0 C 6,7 C 96 % 998,2 hPa 0,0 l/m 0 min 0 min 0 W/m 16,1 km/h (3 Bft) 97,87 %
31.10.2023 03:14 10,4 C 10,0 C 6,7 C 96 % 998,3 hPa 0,0 l/m 0 min 2 min 0 W/m 12,9 km/h (3 Bft) 97,87 %
31.10.2023 03:16 10,4 C 10,0 C 6,7 C 96 % 998,2 hPa 0,0 l/m 0 min 2 min 0 W/m 19,3 km/h (3 Bft) 97,83 %
31.10.2023 03:18 10,4 C 10,0 C 6,7 C 96 % 998,2 hPa 0,0 l/m 0 min 0 min 0 W/m 12,9 km/h (3 Bft) 97,87 %
31.10.2023 03:20 10,4 C 10,0 C 6,7 C 96 % 998,2 hPa 0,0 l/m 0 min 0 min 0 W/m 19,3 km/h (3 Bft) 95,74 %
31.10.2023 03:22 10,4 C 10,0 C 6,7 C 96 % 998,2 hPa 0,0 l/m 0 min 0 min 0 W/m 12,9 km/h (3 Bft) 95,74 %
31.10.2023 03:24 10,4 C 10,0 C 6,7 C 96 % 998,2 hPa 0,0 l/m 0 min 0 min 0 W/m 12,9 km/h (3 Bft) 95,74 %
31.10.2023 03:26 10,4 C 10,0 C 6,7 C 96 % 998,2 hPa 0,0 l/m 0 min 0 min 0 W/m 16,1 km/h (3 Bft) 93,62 %
31.10.2023 03:28 10,4 C 10,0 C 6,7 C 96 % 998,2 hPa 0,0 l/m 0 min 0 min 0 W/m 25,7 km/h (4 Bft) 95,74 %
31.10.2023 03:30 10,4 C 10,0 C 6,7 C 96 % 998,2 hPa 0,0 l/m 0 min 0 min 0 W/m 12,9 km/h (3 Bft) 95,65 %
31.10.2023 03:32 10,4 C 10,0 C 6,7 C 96 % 998,2 hPa 0,0 l/m 0 min 0 min 0 W/m 19,3 km/h (3 Bft) 97,87 %
31.10.2023 03:34 10,4 C 10,0 C 6,7 C 96 % 998,2 hPa 0,0 l/m 0 min 0 min 0 W/m 22,5 km/h (4 Bft) 95,74 %
31.10.2023 03:36 10,4 C 10,0 C 6,7 C 96 % 998,1 hPa 0,0 l/m 0 min 0 min 0 W/m 19,3 km/h (3 Bft) 95,74 %
31.10.2023 03:38 10,4 C 10,0 C 6,7 C 96 % 998,2 hPa 0,0 l/m 0 min 0 min 0 W/m 16,1 km/h (3 Bft) 95,74 %
31.10.2023 03:40 10,4 C 10,0 C 6,7 C 97 % 998,1 hPa 0,2 l/m 0 min 0 min 0 W/m 16,1 km/h (3 Bft) 95,74 %
31.10.2023 03:42 10,4 C 10,0 C 6,7 C 97 % 998,1 hPa 0,0 l/m 0 min 0 min 0 W/m 16,1 km/h (3 Bft) 95,65 %
31.10.2023 03:44 10,4 C 10,0 C 6,7 C 96 % 998,2 hPa 0,0 l/m 0 min 0 min 0 W/m 16,1 km/h (3 Bft) 91,49 %
31.10.2023 03:46 10,4 C 10,0 C 6,7 C 97 % 998,2 hPa 0,0 l/m 0 min 0 min 0 W/m 16,1 km/h (3 Bft) 95,74 %
31.10.2023 03:48 10,4 C 10,0 C 6,7 C 97 % 998,2 hPa 0,0 l/m 0 min 0 min 0 W/m 9,7 km/h (2 Bft) 95,74 %
31.10.2023 03:50 10,4 C 10,0 C 6,7 C 96 % 998,1 hPa 0,0 l/m 0 min 0 min 0 W/m 12,9 km/h (3 Bft) 95,74 %
31.10.2023 03:52 10,4 C 10,0 C 6,7 C 96 % 998,2 hPa 0,0 l/m 0 min 0 min 0 W/m 16,1 km/h (3 Bft) 97,87 %
31.10.2023 03:54 10,4 C 10,0 C 6,7 C 96 % 998,2 hPa 0,0 l/m 0 min 0 min 0 W/m 25,7 km/h (4 Bft) 95,74 %
31.10.2023 03:56 10,3 C 10,0 C 6,7 C 96 % 998,2 hPa 0,0 l/m 0 min 0 min 0 W/m 16,1 km/h (3 Bft) 97,87 %
31.10.2023 03:58 10,3 C 10,0 C 6,7 C 96 % 998,2 hPa 0,0 l/m 0 min 0 min 0 W/m 12,9 km/h (3 Bft) 100,00 %
31.10.2023 04:00 10,4 C 10,0 C 6,7 C 96 % 998,3 hPa 0,0 l/m 0 min 0 min 0 W/m 12,9 km/h (3 Bft) 100,00 %
31.10.2023 04:02 10,4 C 10,0 C 6,7 C 96 % 998,3 hPa 0,0 l/m 0 min 0 min 0 W/m 12,9 km/h (3 Bft) 100,00 %
31.10.2023 04:04 10,4 C 10,0 C 6,7 C 96 % 998,3 hPa 0,0 l/m 0 min 0 min 0 W/m 12,9 km/h (3 Bft) 100,00 %
31.10.2023 04:06 10,4 C 10,0 C 6,7 C 96 % 998,2 hPa 0,0 l/m 0 min 0 min 0 W/m 22,5 km/h (4 Bft) 97,87 %
31.10.2023 04:08 10,4 C 10,0 C 6,7 C 96 % 998,3 hPa 0,0 l/m 0 min 0 min 0 W/m 19,3 km/h (3 Bft) 100,00 %
31.10.2023 04:10 10,4 C 10,0 C 6,7 C 96 % 998,4 hPa 0,0 l/m 0 min 0 min 0 W/m 12,9 km/h (3 Bft) 100,00 %
31.10.2023 04:12 10,4 C 10,0 C 6,7 C 96 % 998,4 hPa 0,0 l/m 0 min 0 min 0 W/m 9,7 km/h (2 Bft) 100,00 %
31.10.2023 04:14 10,4 C 10,0 C 6,7 C 96 % 998,4 hPa 0,0 l/m 0 min 0 min 0 W/m 9,7 km/h (2 Bft) 100,00 %
31.10.2023 04:16 10,4 C 10,0 C 6,7 C 96 % 998,4 hPa 0,0 l/m 0 min 0 min 0 W/m 12,9 km/h (3 Bft) 100,00 %
31.10.2023 04:18 10,4 C 10,0 C 6,7 C 96 % 998,4 hPa 0,0 l/m 0 min 0 min 0 W/m 19,3 km/h (3 Bft) 97,87 %
31.10.2023 04:20 10,4 C 10,0 C 6,7 C 96 % 998,3 hPa 0,0 l/m 0 min 0 min 0 W/m 16,1 km/h (3 Bft) 100,00 %
31.10.2023 04:22 10,4 C 10,0 C 6,7 C 96 % 998,3 hPa 0,0 l/m 0 min 0 min 0 W/m 6,4 km/h (2 Bft) 100,00 %
31.10.2023 04:24 10,4 C 10,0 C 6,7 C 96 % 998,4 hPa 0,0 l/m 0 min 0 min 0 W/m 12,9 km/h (3 Bft) 100,00 %
31.10.2023 04:26 10,4 C 10,0 C 6,7 C 96 % 998,4 hPa 0,0 l/m 0 min 0 min 0 W/m 16,1 km/h (3 Bft) 100,00 %
31.10.2023 04:28 10,4 C 10,0 C 6,7 C 96 % 998,5 hPa 0,0 l/m 0 min 0 min 0 W/m 19,3 km/h (3 Bft) 100,00 %
31.10.2023 04:30 10,4 C 10,0 C 6,7 C 97 % 998,4 hPa 0,0 l/m 0 min 0 min 0 W/m 22,5 km/h (4 Bft) 100,00 %
31.10.2023 04:32 10,4 C 10,0 C 6,7 C 97 % 998,5 hPa 0,0 l/m 0 min 0 min 0 W/m 22,5 km/h (4 Bft) 100,00 %
31.10.2023 04:34 10,4 C 10,0 C 6,7 C 97 % 998,5 hPa 0,0 l/m 0 min 0 min 0 W/m 16,1 km/h (3 Bft) 100,00 %
31.10.2023 04:36 10,4 C 10,0 C 6,7 C 97 % 998,5 hPa 0,0 l/m 0 min 0 min 0 W/m 16,1 km/h (3 Bft) 100,00 %
31.10.2023 04:38 10,4 C 10,0 C 6,7 C 97 % 998,5 hPa 0,0 l/m 0 min 0 min 0 W/m 16,1 km/h (3 Bft) 100,00 %
31.10.2023 04:40 10,4 C 10,0 C 6,7 C 97 % 998,5 hPa 0,0 l/m 0 min 0 min 0 W/m 16,1 km/h (3 Bft) 100,00 %
31.10.2023 04:42 10,4 C 10,0 C 6,7 C 97 % 998,5 hPa 0,0 l/m 0 min 0 min 0 W/m 9,7 km/h (2 Bft) 100,00 %
31.10.2023 04:44 10,4 C 10,0 C 6,7 C 97 % 998,6 hPa 0,0 l/m 0 min 0 min 0 W/m 6,4 km/h (2 Bft) 97,87 %
31.10.2023 04:46 10,4 C 10,0 C 6,7 C 96 % 998,6 hPa 0,0 l/m 0 min 0 min 0 W/m 16,1 km/h (3 Bft) 95,74 %
31.10.2023 04:48 10,4 C 10,0 C 6,7 C 96 % 998,7 hPa 0,0 l/m 0 min 0 min 0 W/m 12,9 km/h (3 Bft) 97,87 %
31.10.2023 04:50 10,4 C 10,0 C 6,7 C 96 % 998,7 hPa 0,0 l/m 0 min 0 min 0 W/m 12,9 km/h (3 Bft) 97,87 %
31.10.2023 04:52 10,4 C 10,0 C 6,7 C 96 % 998,7 hPa 0,0 l/m 0 min 0 min 0 W/m 6,4 km/h (2 Bft) 97,87 %
31.10.2023 04:54 10,4 C 10,0 C 6,7 C 96 % 998,7 hPa 0,0 l/m 0 min 0 min 0 W/m 9,7 km/h (2 Bft) 95,65 %
31.10.2023 04:56 10,4 C 10,0 C 6,7 C 96 % 998,7 hPa 0,0 l/m 0 min 0 min 0 W/m 12,9 km/h (3 Bft) 97,87 %
31.10.2023 04:58 10,4 C 10,0 C 6,7 C 96 % 998,7 hPa 0,0 l/m 0 min 2 min 0 W/m 12,9 km/h (3 Bft) 95,74 %
31.10.2023 05:00 10,4 C 10,0 C 6,7 C 96 % 998,7 hPa 0,0 l/m 0 min 0 min 0 W/m 12,9 km/h (3 Bft) 97,87 %
31.10.2023 05:02 10,4 C 10,0 C 6,7 C 96 % 998,8 hPa 0,0 l/m 0 min 0 min 0 W/m 9,7 km/h (2 Bft) 97,87 %
31.10.2023 05:04 10,4 C 10,0 C 6,7 C 97 % 998,8 hPa 0,0 l/m 0 min 0 min 0 W/m 6,4 km/h (2 Bft) 97,87 %
31.10.2023 05:06 10,4 C 10,0 C 6,7 C 97 % 998,9 hPa 0,0 l/m 0 min 0 min 0 W/m 19,3 km/h (3 Bft) 97,87 %
31.10.2023 05:08 10,5 C 10,0 C 6,7 C 97 % 998,8 hPa 0,0 l/m 0 min 0 min 0 W/m 6,4 km/h (2 Bft) 97,87 %
31.10.2023 05:10 10,5 C 10,0 C 6,7 C 97 % 998,8 hPa 0,0 l/m 0 min 0 min 0 W/m 6,4 km/h (2 Bft) 95,74 %
31.10.2023 05:12 10,5 C 10,0 C 6,7 C 97 % 998,9 hPa 0,0 l/m 0 min 2 min 0 W/m 12,9 km/h (3 Bft) 93,48 %
31.10.2023 05:14 10,4 C 10,0 C 6,7 C 97 % 999,0 hPa 0,0 l/m 0 min 0 min 0 W/m 12,9 km/h (3 Bft) 93,62 %
31.10.2023 05:16 10,5 C 10,0 C 6,7 C 97 % 998,9 hPa 0,0 l/m 0 min 0 min 0 W/m 12,9 km/h (3 Bft) 93,62 %
31.10.2023 05:18 10,5 C 10,0 C 6,7 C 97 % 999,1 hPa 0,0 l/m 0 min 2 min 0 W/m 12,9 km/h (3 Bft) 95,74 %
31.10.2023 05:20 10,5 C 10,0 C 6,7 C 97 % 999,0 hPa 0,0 l/m 0 min 2 min 0 W/m 9,7 km/h (2 Bft) 95,74 %
31.10.2023 05:22 10,5 C 10,0 C 6,7 C 97 % 999,0 hPa 0,0 l/m 0 min 2 min 0 W/m 19,3 km/h (3 Bft) 95,74 %
31.10.2023 05:24 10,4 C 10,0 C 6,7 C 97 % 999,1 hPa 0,0 l/m 0 min 2 min 0 W/m 12,9 km/h (3 Bft) 93,62 %
31.10.2023 05:26 10,4 C 10,0 C 6,7 C 97 % 999,1 hPa 0,0 l/m 0 min 2 min 0 W/m 12,9 km/h (3 Bft) 95,65 %
31.10.2023 05:28 10,4 C 10,0 C 6,7 C 97 % 999,2 hPa 0,0 l/m 0 min 0 min 0 W/m 22,5 km/h (4 Bft) 95,74 %
31.10.2023 05:30 10,4 C 10,0 C 6,7 C 97 % 999,1 hPa 0,0 l/m 0 min 0 min 0 W/m 19,3 km/h (3 Bft) 95,74 %
31.10.2023 05:32 10,4 C 10,0 C 6,7 C 96 % 999,2 hPa 0,0 l/m 0 min 0 min 0 W/m 12,9 km/h (3 Bft) 93,62 %
31.10.2023 05:34 10,4 C 10,0 C 6,7 C 96 % 999,2 hPa 0,0 l/m 0 min 0 min 0 W/m 19,3 km/h (3 Bft) 93,62 %
31.10.2023 05:36 10,4 C 10,0 C 6,7 C 96 % 999,3 hPa 0,0 l/m 0 min 0 min 0 W/m 19,3 km/h (3 Bft) 95,74 %
31.10.2023 05:38 10,4 C 10,0 C 6,7 C 96 % 999,3 hPa 0,0 l/m 0 min 2 min 0 W/m 12,9 km/h (3 Bft) 95,74 %
31.10.2023 05:40 10,4 C 10,0 C 6,7 C 97 % 999,3 hPa 0,0 l/m 0 min 2 min 0 W/m 12,9 km/h (3 Bft) 97,83 %
31.10.2023 05:42 10,4 C 10,0 C 6,7 C 96 % 999,3 hPa 0,0 l/m 0 min 0 min 0 W/m 16,1 km/h (3 Bft) 97,87 %
31.10.2023 05:44 10,4 C 10,0 C 6,7 C 97 % 999,4 hPa 0,0 l/m 0 min 0 min 0 W/m 16,1 km/h (3 Bft) 97,87 %
31.10.2023 05:46 10,4 C 10,0 C 6,7 C 97 % 999,4 hPa 0,0 l/m 0 min 0 min 0 W/m 9,7 km/h (2 Bft) 97,87 %
31.10.2023 05:48 10,4 C 10,0 C 6,7 C 97 % 999,4 hPa 0,0 l/m 0 min 0 min 0 W/m 16,1 km/h (3 Bft) 97,87 %
31.10.2023 05:50 10,4 C 10,0 C 6,7 C 97 % 999,4 hPa 0,0 l/m 0 min 0 min 0 W/m 12,9 km/h (3 Bft) 95,74 %
31.10.2023 05:52 10,4 C 10,0 C 6,7 C 97 % 999,4 hPa 0,0 l/m 0 min 0 min 0 W/m 16,1 km/h (3 Bft) 97,83 %
31.10.2023 05:54 10,4 C 10,0 C 6,7 C 97 % 999,5 hPa 0,0 l/m 0 min 0 min 0 W/m 12,9 km/h (3 Bft) 97,87 %
31.10.2023 05:56 10,4 C 10,0 C 6,7 C 97 % 999,4 hPa 0,0 l/m 0 min 2 min 0 W/m 12,9 km/h (3 Bft) 95,74 %
31.10.2023 05:58 10,4 C 10,0 C 6,7 C 97 % 999,5 hPa 0,0 l/m 0 min 0 min 0 W/m 6,4 km/h (2 Bft) 97,87 %
31.10.2023 06:00 10,4 C 10,0 C 6,7 C 97 % 999,5 hPa 0,0 l/m 0 min 0 min 0 W/m 12,9 km/h (3 Bft) 97,87 %
31.10.2023 06:02 10,4 C 10,0 C 6,7 C 97 % 999,5 hPa 0,0 l/m 0 min 2 min 0 W/m 9,7 km/h (2 Bft) 95,74 %
31.10.2023 06:04 10,4 C 10,0 C 6,7 C 97 % 999,5 hPa 0,2 l/m 0 min 2 min 0 W/m 12,9 km/h (3 Bft) 97,87 %
31.10.2023 06:08 10,4 C 9,4 C 6,7 C 97 % 999,6 hPa 0,0 l/m 0 min 0 min 0 W/m 6,4 km/h (2 Bft) 96,43 %
31.10.2023 06:10 10,4 C 9,4 C 6,7 C 97 % 999,7 hPa 0,0 l/m 0 min 0 min 0 W/m 9,7 km/h (2 Bft) 95,74 %
31.10.2023 06:12 10,4 C 9,4 C 6,7 C 97 % 999,7 hPa 0,0 l/m 0 min 2 min 0 W/m 6,4 km/h (2 Bft) 95,74 %
31.10.2023 06:14 10,4 C 9,4 C 6,7 C 97 % 999,8 hPa 0,2 l/m 0 min 0 min 0 W/m 6,4 km/h (2 Bft) 95,74 %
31.10.2023 06:16 10,4 C 9,4 C 6,7 C 97 % 999,7 hPa 0,0 l/m 0 min 0 min 0 W/m 6,4 km/h (2 Bft) 97,87 %
31.10.2023 06:18 10,4 C 9,4 C 6,7 C 97 % 999,8 hPa 0,0 l/m 0 min 2 min 0 W/m 16,1 km/h (3 Bft) 97,87 %
31.10.2023 06:20 10,4 C 9,4 C 6,7 C 97 % 999,8 hPa 0,0 l/m 0 min 0 min 0 W/m 6,4 km/h (2 Bft) 97,83 %
31.10.2023 06:22 10,4 C 9,4 C 6,7 C 97 % 999,8 hPa 0,0 l/m 0 min 2 min 0 W/m 12,9 km/h (3 Bft) 97,87 %
31.10.2023 06:24 10,4 C 9,4 C 6,7 C 97 % 999,9 hPa 0,2 l/m 0 min 2 min 0 W/m 6,4 km/h (2 Bft) 97,87 %
31.10.2023 06:26 10,4 C 9,4 C 6,7 C 97 % 999,8 hPa 0,0 l/m 0 min 0 min 0 W/m 12,9 km/h (3 Bft) 97,87 %
31.10.2023 06:28 10,4 C 9,4 C 6,7 C 97 % 999,8 hPa 0,0 l/m 0 min 0 min 0 W/m 6,4 km/h (2 Bft) 97,87 %
31.10.2023 06:30 10,4 C 9,4 C 6,7 C 97 % 999,8 hPa 0,0 l/m 0 min 0 min 0 W/m 12,9 km/h (3 Bft) 97,87 %
31.10.2023 06:32 10,4 C 9,4 C 6,7 C 97 % 999,9 hPa 0,0 l/m 0 min 0 min 0 W/m 9,7 km/h (2 Bft) 95,74 %
31.10.2023 06:34 10,4 C 9,4 C 6,7 C 97 % 999,9 hPa 0,0 l/m 0 min 0 min 0 W/m 6,4 km/h (2 Bft) 100,00 %
31.10.2023 06:36 10,4 C 9,4 C 6,7 C 97 % 999,9 hPa 0,0 l/m 0 min 0 min 0 W/m 9,7 km/h (2 Bft) 55,56 %
31.10.2023 06:38 10,3 C 9,4 C 6,7 C 97 % 999,9 hPa 0,0 l/m 0 min 0 min 0 W/m 12,9 km/h (3 Bft) 100,00 %
31.10.2023 06:40 10,3 C 9,4 C 6,7 C 97 % 1000,1 hPa 0,0 l/m 0 min 0 min 0 W/m 12,9 km/h (3 Bft) 97,87 %
31.10.2023 06:42 10,3 C 9,4 C 6,7 C 97 % 1000,1 hPa 0,0 l/m 0 min 0 min 0 W/m 12,9 km/h (3 Bft) 97,87 %
31.10.2023 06:44 10,3 C 9,4 C 6,7 C 97 % 1000,0 hPa 0,0 l/m 0 min 0 min 0 W/m 9,7 km/h (2 Bft) 100,00 %
31.10.2023 06:46 10,3 C 9,4 C 6,7 C 97 % 1000,1 hPa 0,0 l/m 0 min 0 min 0 W/m 9,7 km/h (2 Bft) 100,00 %
31.10.2023 06:48 10,3 C 9,4 C 6,7 C 97 % 1000,1 hPa 0,0 l/m 0 min 0 min 0 W/m 16,1 km/h (3 Bft) 97,87 %
31.10.2023 06:50 10,2 C 9,4 C 6,7 C 97 % 1000,1 hPa 0,0 l/m 0 min 0 min 0 W/m 12,9 km/h (3 Bft) 100,00 %
31.10.2023 06:52 10,2 C 9,4 C 6,7 C 97 % 1000,2 hPa 0,0 l/m 0 min 0 min 0 W/m 12,9 km/h (3 Bft) 100,00 %
31.10.2023 06:54 10,2 C 9,4 C 6,7 C 97 % 1000,2 hPa 0,0 l/m 0 min 0 min 0 W/m 12,9 km/h (3 Bft) 100,00 %
31.10.2023 06:56 10,2 C 9,4 C 6,7 C 97 % 1000,1 hPa 0,0 l/m 0 min 0 min 0 W/m 6,4 km/h (2 Bft) 97,83 %
31.10.2023 06:58 10,2 C 9,4 C 6,7 C 97 % 1000,3 hPa 0,0 l/m 0 min 0 min 0 W/m 6,4 km/h (2 Bft) 95,74 %
31.10.2023 07:00 10,2 C 9,4 C 6,7 C 97 % 1000,3 hPa 0,0 l/m 0 min 0 min 0 W/m 9,7 km/h (2 Bft) 95,74 %
31.10.2023 07:02 10,2 C 9,4 C 6,7 C 97 % 1000,2 hPa 0,0 l/m 0 min 0 min 0 W/m 6,4 km/h (2 Bft) 97,87 %
31.10.2023 07:04 10,2 C 9,4 C 6,7 C 97 % 1000,3 hPa 0,0 l/m 0 min 0 min 0 W/m 6,4 km/h (2 Bft) 98,00 %
31.10.2023 07:06 10,2 C 9,4 C 6,7 C 97 % 1000,4 hPa 0,0 l/m 0 min 0 min 0 W/m 16,1 km/h (3 Bft) 97,87 %
31.10.2023 07:08 10,2 C 9,4 C 6,7 C 97 % 1000,4 hPa 0,0 l/m 0 min 0 min 0 W/m 12,9 km/h (3 Bft) 97,87 %
31.10.2023 07:10 10,2 C 9,4 C 6,7 C 98 % 1000,4 hPa 0,0 l/m 0 min 0 min 0 W/m 6,4 km/h (2 Bft) 97,83 %
31.10.2023 07:12 10,2 C 9,4 C 6,7 C 98 % 1000,4 hPa 0,0 l/m 0 min 0 min 0 W/m 3,2 km/h (1 Bft) 97,87 %
31.10.2023 07:14 10,2 C 9,4 C 6,7 C 97 % 1000,4 hPa 0,0 l/m 0 min 0 min 0 W/m 12,9 km/h (3 Bft) 97,87 %
31.10.2023 07:16 10,2 C 9,4 C 6,7 C 97 % 1000,5 hPa 0,0 l/m 0 min 0 min 0 W/m 16,1 km/h (3 Bft) 97,87 %
31.10.2023 07:18 10,2 C 9,4 C 6,7 C 97 % 1000,6 hPa 0,0 l/m 0 min 0 min 0 W/m 16,1 km/h (3 Bft) 97,87 %
31.10.2023 07:20 10,2 C 9,4 C 6,7 C 97 % 1000,6 hPa 0,0 l/m 0 min 0 min 0 W/m 16,1 km/h (3 Bft) 97,87 %
31.10.2023 07:22 10,2 C 9,4 C 6,7 C 97 % 1000,6 hPa 0,0 l/m 0 min 0 min 0 W/m 12,9 km/h (3 Bft) 97,83 %
31.10.2023 07:24 10,2 C 9,4 C 6,7 C 97 % 1000,6 hPa 0,0 l/m 0 min 0 min 0 W/m 6,4 km/h (2 Bft) 97,87 %
31.10.2023 07:26 10,2 C 9,4 C 6,7 C 97 % 1000,7 hPa 0,0 l/m 0 min 0 min 0 W/m 16,1 km/h (3 Bft) 97,87 %
31.10.2023 07:28 10,2 C 9,4 C 6,7 C 97 % 1000,7 hPa 0,0 l/m 0 min 0 min 0 W/m 12,9 km/h (3 Bft) 97,87 %
31.10.2023 07:30 10,1 C 9,4 C 6,7 C 97 % 1000,7 hPa 0,0 l/m 0 min 0 min 0 W/m 12,9 km/h (3 Bft) 100,00 %
31.10.2023 07:32 10,1 C 9,4 C 6,7 C 97 % 1000,8 hPa 0,0 l/m 0 min 2 min 0 W/m 19,3 km/h (3 Bft) 100,00 %
31.10.2023 07:34 10,1 C 9,4 C 6,7 C 97 % 1000,7 hPa 0,0 l/m 0 min 2 min 0 W/m 12,9 km/h (3 Bft) 100,00 %
31.10.2023 07:36 10,1 C 9,4 C 6,7 C 97 % 1000,8 hPa 0,0 l/m 0 min 2 min 0 W/m 12,9 km/h (3 Bft) 100,00 %
31.10.2023 07:38 10,1 C 9,4 C 6,7 C 97 % 1000,7 hPa 0,0 l/m 0 min 0 min 0 W/m 9,7 km/h (2 Bft) 100,00 %
31.10.2023 07:40 10,1 C 9,4 C 6,7 C 97 % 1000,8 hPa 0,0 l/m 0 min 0 min 0 W/m 6,4 km/h (2 Bft) 100,00 %
31.10.2023 07:42 10,1 C 9,4 C 6,7 C 97 % 1000,8 hPa 0,0 l/m 0 min 0 min 0 W/m 12,9 km/h (3 Bft) 100,00 %
31.10.2023 07:44 10,2 C 9,4 C 6,7 C 98 % 1000,8 hPa 0,0 l/m 0 min 0 min 0 W/m 9,7 km/h (2 Bft) 100,00 %
31.10.2023 07:46 10,2 C 9,4 C 6,7 C 98 % 1000,8 hPa 0,0 l/m 0 min 0 min 3 W/m 6,4 km/h (2 Bft) 93,62 %
31.10.2023 07:48 10,2 C 9,4 C 6,7 C 98 % 1000,8 hPa 0,0 l/m 0 min 0 min 6 W/m 12,9 km/h (3 Bft) 100,00 %
31.10.2023 07:50 10,2 C 9,4 C 6,7 C 98 % 1000,8 hPa 0,0 l/m 0 min 0 min 7 W/m 6,4 km/h (2 Bft) 98,28 %
31.10.2023 07:52 10,2 C 9,4 C 6,7 C 98 % 1000,8 hPa 0,0 l/m 0 min 0 min 7 W/m 9,7 km/h (2 Bft) 97,22 %
31.10.2023 07:54 10,2 C 9,4 C 6,7 C 98 % 1000,7 hPa 0,0 l/m 0 min 0 min 9 W/m 6,4 km/h (2 Bft) 97,83 %
31.10.2023 07:56 10,2 C 9,4 C 6,7 C 98 % 1000,8 hPa 0,0 l/m 0 min 0 min 12 W/m 6,4 km/h (2 Bft) 97,87 %
31.10.2023 07:58 10,2 C 9,4 C 6,7 C 98 % 1000,8 hPa 0,0 l/m 0 min 0 min 12 W/m 6,4 km/h (2 Bft) 95,74 %
31.10.2023 08:00 10,2 C 9,4 C 6,7 C 98 % 1000,9 hPa 0,0 l/m 0 min 0 min 12 W/m 16,1 km/h (3 Bft) 97,87 %
31.10.2023 08:02 10,2 C 9,4 C 6,7 C 98 % 1000,9 hPa 0,0 l/m 0 min 0 min 13 W/m 16,1 km/h (3 Bft) 93,62 %
31.10.2023 08:04 10,2 C 9,4 C 6,7 C 98 % 1000,8 hPa 0,0 l/m 0 min 0 min 14 W/m 12,9 km/h (3 Bft) 95,92 %
31.10.2023 08:06 10,2 C 9,4 C 6,7 C 98 % 1000,7 hPa 0,0 l/m 0 min 0 min 15 W/m 12,9 km/h (3 Bft) 98,28 %
31.10.2023 08:08 10,1 C 9,4 C 6,7 C 98 % 1000,8 hPa 0,0 l/m 0 min 0 min 14 W/m 9,7 km/h (2 Bft) 93,62 %
31.10.2023 08:10 10,1 C 9,4 C 6,7 C 98 % 1000,8 hPa 0,0 l/m 0 min 0 min 15 W/m 12,9 km/h (3 Bft) 97,14 %
31.10.2023 08:12 10,1 C 9,4 C 6,7 C 98 % 1000,9 hPa 0,0 l/m 0 min 0 min 16 W/m 12,9 km/h (3 Bft) 93,62 %
31.10.2023 08:14 10,1 C 9,4 C 6,7 C 98 % 1001,0 hPa 0,0 l/m 0 min 0 min 19 W/m 12,9 km/h (3 Bft) 94,55 %
31.10.2023 08:16 10,1 C 9,4 C 6,7 C 98 % 1001,0 hPa 0,0 l/m 0 min 0 min 23 W/m 6,4 km/h (2 Bft) 95,74 %
31.10.2023 08:18 10,1 C 9,4 C 6,7 C 98 % 1001,0 hPa 0,0 l/m 0 min 0 min 27 W/m 12,9 km/h (3 Bft) 97,87 %
31.10.2023 08:20 10,1 C 9,4 C 6,7 C 98 % 1001,1 hPa 0,0 l/m 0 min 0 min 32 W/m 12,9 km/h (3 Bft) 95,74 %
31.10.2023 08:22 10,1 C 9,4 C 6,7 C 98 % 1001,2 hPa 0,0 l/m 0 min 0 min 34 W/m 6,4 km/h (2 Bft) 91,30 %
31.10.2023 08:24 10,1 C 9,4 C 6,7 C 98 % 1001,2 hPa 0,0 l/m 0 min 0 min 29 W/m 9,7 km/h (2 Bft) 93,62 %
31.10.2023 08:26 10,1 C 9,4 C 6,7 C 98 % 1001,3 hPa 0,0 l/m 0 min 0 min 24 W/m 12,9 km/h (3 Bft) 95,74 %
31.10.2023 08:28 10,1 C 9,4 C 6,7 C 98 % 1001,3 hPa 0,0 l/m 0 min 0 min 25 W/m 12,9 km/h (3 Bft) 93,62 %
31.10.2023 08:30 10,1 C 9,4 C 6,7 C 98 % 1001,3 hPa 0,0 l/m 0 min 0 min 22 W/m 9,7 km/h (2 Bft) 95,74 %
31.10.2023 08:32 10,1 C 9,4 C 6,7 C 98 % 1001,4 hPa 0,0 l/m 0 min 0 min 27 W/m 16,1 km/h (3 Bft) 93,62 %
31.10.2023 08:34 10,1 C 9,4 C 6,7 C 98 % 1001,4 hPa 0,0 l/m 0 min 0 min 28 W/m 16,1 km/h (3 Bft) 93,62 %
31.10.2023 08:36 10,1 C 9,4 C 6,7 C 98 % 1001,4 hPa 0,0 l/m 0 min 0 min 20 W/m 6,4 km/h (2 Bft) 95,65 %
31.10.2023 08:38 10,1 C 9,4 C 6,7 C 98 % 1001,4 hPa 0,0 l/m 0 min 0 min 19 W/m 12,9 km/h (3 Bft) 95,74 %
31.10.2023 08:40 10,1 C 9,4 C 6,7 C 98 % 1001,5 hPa 0,0 l/m 0 min 0 min 26 W/m 6,4 km/h (2 Bft) 91,49 %
31.10.2023 08:42 10,1 C 9,4 C 6,7 C 98 % 1001,4 hPa 0,0 l/m 0 min 0 min 35 W/m 6,4 km/h (2 Bft) 93,62 %
31.10.2023 08:44 10,1 C 9,4 C 6,7 C 98 % 1001,4 hPa 0,0 l/m 0 min 0 min 33 W/m 12,9 km/h (3 Bft) 95,74 %
31.10.2023 08:46 10,1 C 10,0 C 6,7 C 98 % 1001,5 hPa 0,0 l/m 0 min 0 min 30 W/m 9,7 km/h (2 Bft) 95,74 %
31.10.2023 08:48 10,1 C 10,0 C 6,7 C 98 % 1001,6 hPa 0,0 l/m 0 min 0 min 32 W/m 16,1 km/h (3 Bft) 97,83 %
31.10.2023 08:50 10,1 C 10,0 C 6,7 C 98 % 1001,5 hPa 0,0 l/m 0 min 0 min 36 W/m 6,4 km/h (2 Bft) 95,74 %
31.10.2023 08:52 10,1 C 10,0 C 6,7 C 98 % 1001,5 hPa 0,0 l/m 0 min 0 min 42 W/m 3,2 km/h (1 Bft) 93,62 %
31.10.2023 08:54 10,1 C 10,0 C 6,7 C 98 % 1001,6 hPa 0,0 l/m 0 min 0 min 45 W/m 6,4 km/h (2 Bft) 95,74 %
31.10.2023 08:56 10,1 C 10,0 C 6,7 C 98 % 1001,6 hPa 0,0 l/m 0 min 0 min 49 W/m 6,4 km/h (2 Bft) 93,62 %
31.10.2023 08:58 10,1 C 10,0 C 6,7 C 98 % 1001,6 hPa 0,0 l/m 0 min 0 min 55 W/m 19,3 km/h (3 Bft) 95,74 %
31.10.2023 09:00 10,1 C 10,0 C 6,7 C 98 % 1001,5 hPa 0,0 l/m 0 min 0 min 51 W/m 12,9 km/h (3 Bft) 97,87 %
31.10.2023 09:02 10,1 C 10,0 C 6,7 C 98 % 1001,5 hPa 0,0 l/m 0 min 0 min 43 W/m 16,1 km/h (3 Bft) 95,65 %
31.10.2023 09:04 10,1 C 10,0 C 6,7 C 98 % 1001,5 hPa 0,0 l/m 0 min 0 min 60 W/m 19,3 km/h (3 Bft) 95,24 %
31.10.2023 09:06 10,1 C 10,0 C 6,7 C 97 % 1001,5 hPa 0,0 l/m 0 min 0 min 78 W/m 9,7 km/h (2 Bft) 97,87 %
31.10.2023 09:08 10,1 C 10,0 C 6,7 C 97 % 1001,5 hPa 0,0 l/m 0 min 0 min 93 W/m 9,7 km/h (2 Bft) 97,87 %
31.10.2023 09:10 10,1 C 10,0 C 6,7 C 97 % 1001,5 hPa 0,0 l/m 0 min 0 min 99 W/m 12,9 km/h (3 Bft) 97,87 %
31.10.2023 09:12 10,2 C 10,0 C 6,7 C 97 % 1001,5 hPa 0,0 l/m 0 min 0 min 101 W/m 6,4 km/h (2 Bft) 95,65 %
31.10.2023 09:14 10,2 C 10,6 C 7,2 C 97 % 1001,5 hPa 0,0 l/m 0 min 0 min 108 W/m 12,9 km/h (3 Bft) 97,87 %
31.10.2023 09:16 10,3 C 10,6 C 6,7 C 98 % 1001,5 hPa 0,0 l/m 0 min 0 min 88 W/m 12,9 km/h (3 Bft) 95,74 %
31.10.2023 09:18 10,3 C 10,6 C 6,7 C 98 % 1001,5 hPa 0,0 l/m 0 min 0 min 87 W/m 16,1 km/h (3 Bft) 100,00 %
31.10.2023 09:20 10,3 C 10,6 C 6,7 C 97 % 1001,6 hPa 0,0 l/m 0 min 0 min 85 W/m 6,4 km/h (2 Bft) 100,00 %
31.10.2023 09:22 10,3 C 10,6 C 7,2 C 97 % 1001,7 hPa 0,0 l/m 0 min 0 min 76 W/m 6,4 km/h (2 Bft) 100,00 %
31.10.2023 09:24 10,3 C 10,6 C 7,2 C 97 % 1001,7 hPa 0,0 l/m 0 min 0 min 74 W/m 12,9 km/h (3 Bft) 100,00 %
31.10.2023 09:26 10,4 C 10,6 C 6,7 C 97 % 1001,7 hPa 0,0 l/m 0 min 0 min 73 W/m 12,9 km/h (3 Bft) 100,00 %
31.10.2023 09:28 10,4 C 10,0 C 6,7 C 97 % 1001,7 hPa 0,0 l/m 0 min 0 min 72 W/m 6,4 km/h (2 Bft) 97,87 %
31.10.2023 09:30 10,4 C 10,0 C 6,7 C 97 % 1001,7 hPa 0,0 l/m 0 min 0 min 61 W/m 9,7 km/h (2 Bft) 100,00 %
31.10.2023 09:32 10,4 C 10,0 C 7,2 C 97 % 1001,7 hPa 0,0 l/m 0 min 0 min 50 W/m 9,7 km/h (2 Bft) 100,00 %
31.10.2023 09:34 10,4 C 10,0 C 7,2 C 97 % 1001,8 hPa 0,0 l/m 0 min 0 min 43 W/m 6,4 km/h (2 Bft) 100,00 %
31.10.2023 09:36 10,4 C 10,0 C 7,2 C 97 % 1001,8 hPa 0,0 l/m 0 min 0 min 38 W/m 6,4 km/h (2 Bft) 100,00 %
31.10.2023 09:38 10,4 C 10,0 C 7,2 C 97 % 1001,8 hPa 0,0 l/m 0 min 0 min 36 W/m 6,4 km/h (2 Bft) 100,00 %
31.10.2023 09:40 10,4 C 10,0 C 7,2 C 97 % 1001,8 hPa 0,0 l/m 0 min 0 min 42 W/m 16,1 km/h (3 Bft) 100,00 %
31.10.2023 09:42 10,4 C 10,0 C 7,2 C 97 % 1001,8 hPa 0,0 l/m 0 min 0 min 50 W/m 16,1 km/h (3 Bft) 97,87 %
31.10.2023 09:44 10,4 C 10,0 C 7,2 C 97 % 1001,7 hPa 0,0 l/m 0 min 0 min 58 W/m 12,9 km/h (3 Bft) 100,00 %
31.10.2023 09:46 10,4 C 10,0 C 7,2 C 97 % 1001,8 hPa 0,0 l/m 0 min 0 min 70 W/m 12,9 km/h (3 Bft) 100,00 %
31.10.2023 09:48 10,4 C 10,0 C 7,2 C 97 % 1001,9 hPa 0,0 l/m 0 min 0 min 78 W/m 6,4 km/h (2 Bft) 100,00 %
31.10.2023 09:50 10,4 C 10,0 C 7,2 C 97 % 1001,9 hPa 0,0 l/m 0 min 0 min 78 W/m 19,3 km/h (3 Bft) 100,00 %
31.10.2023 09:52 10,4 C 10,0 C 7,2 C 97 % 1001,8 hPa 0,0 l/m 0 min 0 min 77 W/m 16,1 km/h (3 Bft) 100,00 %
31.10.2023 09:54 10,4 C 10,0 C 7,2 C 97 % 1001,9 hPa 0,0 l/m 0 min 0 min 77 W/m 12,9 km/h (3 Bft) 100,00 %
31.10.2023 09:56 10,4 C 10,0 C 7,2 C 97 % 1001,9 hPa 0,0 l/m 0 min 0 min 88 W/m 16,1 km/h (3 Bft) 100,00 %
31.10.2023 09:58 10,4 C 10,6 C 7,2 C 97 % 1001,9 hPa 0,0 l/m 0 min 0 min 100 W/m 3,2 km/h (1 Bft) 100,00 %
31.10.2023 10:00 10,4 C 10,6 C 7,2 C 97 % 1001,9 hPa 0,0 l/m 0 min 0 min 105 W/m 12,9 km/h (3 Bft) 100,00 %
31.10.2023 10:02 10,4 C 10,6 C 7,2 C 97 % 1002,0 hPa 0,0 l/m 0 min 0 min 107 W/m 22,5 km/h (4 Bft) 100,00 %
31.10.2023 10:04 10,4 C 10,6 C 7,2 C 97 % 1002,0 hPa 0,0 l/m 0 min 0 min 112 W/m 12,9 km/h (3 Bft) 100,00 %
31.10.2023 10:06 10,4 C 10,6 C 7,2 C 97 % 1002,1 hPa 0,0 l/m 0 min 0 min 123 W/m 22,5 km/h (4 Bft) 97,83 %
31.10.2023 10:08 10,4 C 10,6 C 7,2 C 97 % 1002,1 hPa 0,0 l/m 2 min 0 min 199 W/m 22,5 km/h (4 Bft) 100,00 %
31.10.2023 10:10 10,5 C 10,6 C 7,2 C 97 % 1002,1 hPa 0,0 l/m 0 min 0 min 137 W/m 19,3 km/h (3 Bft) 100,00 %
31.10.2023 10:12 10,5 C 11,1 C 7,2 C 97 % 1002,1 hPa 0,0 l/m 0 min 0 min 142 W/m 22,5 km/h (4 Bft) 100,00 %
31.10.2023 10:14 10,6 C 11,1 C 7,2 C 96 % 1002,2 hPa 0,0 l/m 0 min 0 min 120 W/m 12,9 km/h (3 Bft) 100,00 %
31.10.2023 10:16 10,6 C 11,1 C 7,2 C 96 % 1002,1 hPa 0,0 l/m 0 min 0 min 63 W/m 22,5 km/h (4 Bft) 100,00 %
31.10.2023 10:18 10,7 C 10,6 C 7,2 C 96 % 1002,2 hPa 0,0 l/m 0 min 0 min 45 W/m 12,9 km/h (3 Bft) 100,00 %
31.10.2023 10:20 10,7 C 10,6 C 7,2 C 96 % 1002,2 hPa 0,0 l/m 0 min 0 min 45 W/m 16,1 km/h (3 Bft) 97,83 %
31.10.2023 10:22 10,7 C 10,6 C 7,2 C 96 % 1002,3 hPa 0,0 l/m 0 min 0 min 66 W/m 12,9 km/h (3 Bft) 100,00 %
31.10.2023 10:24 10,7 C 10,6 C 7,2 C 96 % 1002,3 hPa 0,0 l/m 0 min 0 min 67 W/m 6,4 km/h (2 Bft) 97,87 %
31.10.2023 10:26 10,7 C 10,6 C 7,2 C 96 % 1002,4 hPa 0,0 l/m 0 min 0 min 95 W/m 25,7 km/h (4 Bft) 100,00 %
31.10.2023 10:28 10,7 C 10,6 C 7,2 C 96 % 1002,4 hPa 0,0 l/m 0 min 0 min 110 W/m 12,9 km/h (3 Bft) 97,87 %
31.10.2023 10:30 10,7 C 10,6 C 7,2 C 96 % 1002,5 hPa 0,0 l/m 0 min 0 min 70 W/m 22,5 km/h (4 Bft) 100,00 %
31.10.2023 10:32 10,7 C 10,6 C 7,2 C 96 % 1002,5 hPa 0,0 l/m 0 min 0 min 58 W/m 12,9 km/h (3 Bft) 97,83 %
31.10.2023 10:34 10,7 C 10,6 C 7,2 C 96 % 1002,6 hPa 0,0 l/m 0 min 0 min 93 W/m 22,5 km/h (4 Bft) 97,87 %
31.10.2023 10:36 10,7 C 10,6 C 7,8 C 96 % 1002,6 hPa 0,0 l/m 0 min 0 min 140 W/m 9,7 km/h (2 Bft) 100,00 %
31.10.2023 10:38 10,8 C 11,1 C 7,8 C 96 % 1002,6 hPa 0,0 l/m 0 min 0 min 151 W/m 9,7 km/h (2 Bft) 95,74 %
31.10.2023 10:40 10,8 C 11,1 C 7,8 C 96 % 1002,7 hPa 0,0 l/m 0 min 0 min 133 W/m 16,1 km/h (3 Bft) 97,87 %
31.10.2023 10:42 10,8 C 11,1 C 7,8 C 95 % 1002,7 hPa 0,0 l/m 0 min 0 min 117 W/m 16,1 km/h (3 Bft) 95,74 %
31.10.2023 10:44 10,9 C 11,1 C 7,8 C 95 % 1002,7 hPa 0,0 l/m 0 min 0 min 121 W/m 16,1 km/h (3 Bft) 95,74 %
31.10.2023 10:46 10,9 C 11,1 C 7,8 C 96 % 1002,8 hPa 0,0 l/m 0 min 0 min 114 W/m 12,9 km/h (3 Bft) 95,65 %
31.10.2023 10:48 11,0 C 11,1 C 7,8 C 95 % 1002,8 hPa 0,0 l/m 0 min 0 min 96 W/m 19,3 km/h (3 Bft) 95,74 %
31.10.2023 10:50 11,0 C 11,1 C 7,8 C 95 % 1002,9 hPa 0,0 l/m 0 min 0 min 102 W/m 12,9 km/h (3 Bft) 95,74 %
31.10.2023 10:52 11,1 C 11,1 C 7,8 C 95 % 1002,9 hPa 0,0 l/m 0 min 0 min 113 W/m 19,3 km/h (3 Bft) 95,74 %
31.10.2023 10:54 11,1 C 11,1 C 7,8 C 95 % 1003,0 hPa 0,0 l/m 0 min 0 min 96 W/m 12,9 km/h (3 Bft) 95,74 %
31.10.2023 10:56 11,1 C 11,1 C 7,8 C 95 % 1003,0 hPa 0,0 l/m 0 min 0 min 74 W/m 6,4 km/h (2 Bft) 95,74 %
31.10.2023 10:58 11,1 C 11,1 C 7,8 C 94 % 1003,0 hPa 0,0 l/m 0 min 0 min 73 W/m 22,5 km/h (4 Bft) 89,36 %
31.10.2023 11:00 11,1 C 11,1 C 7,8 C 94 % 1003,0 hPa 0,0 l/m 0 min 0 min 112 W/m 19,3 km/h (3 Bft) 93,48 %
31.10.2023 11:02 11,2 C 11,1 C 7,8 C 94 % 1003,0 hPa 0,0 l/m 0 min 0 min 109 W/m 19,3 km/h (3 Bft) 93,62 %
31.10.2023 11:04 11,2 C 11,1 C 8,3 C 94 % 1003,1 hPa 0,0 l/m 0 min 0 min 94 W/m 19,3 km/h (3 Bft) 91,84 %
31.10.2023 11:06 11,3 C 11,7 C 8,3 C 94 % 1003,1 hPa 0,0 l/m 0 min 0 min 101 W/m 16,1 km/h (3 Bft) 91,49 %
31.10.2023 11:08 11,3 C 11,7 C 8,3 C 94 % 1003,2 hPa 0,0 l/m 0 min 0 min 142 W/m 16,1 km/h (3 Bft) 93,62 %
31.10.2023 11:10 11,4 C 11,7 C 8,3 C 94 % 1003,2 hPa 0,0 l/m 0 min 0 min 174 W/m 16,1 km/h (3 Bft) 97,87 %
31.10.2023 11:12 11,4 C 11,7 C 8,3 C 94 % 1003,2 hPa 0,0 l/m 0 min 0 min 183 W/m 22,5 km/h (4 Bft) 95,65 %
31.10.2023 11:14 11,5 C 11,7 C 8,3 C 93 % 1003,3 hPa 0,0 l/m 0 min 0 min 173 W/m 25,7 km/h (4 Bft) 95,74 %
31.10.2023 11:16 11,6 C 11,7 C 8,3 C 93 % 1003,3 hPa 0,0 l/m 0 min 0 min 148 W/m 16,1 km/h (3 Bft) 95,74 %
31.10.2023 11:18 11,6 C 11,7 C 8,9 C 93 % 1003,3 hPa 0,0 l/m 0 min 0 min 151 W/m 16,1 km/h (3 Bft) 95,74 %
31.10.2023 11:20 11,7 C 12,2 C 8,9 C 93 % 1003,3 hPa 0,0 l/m 0 min 0 min 150 W/m 6,4 km/h (2 Bft) 93,62 %
31.10.2023 11:22 11,8 C 12,2 C 8,9 C 93 % 1003,4 hPa 0,0 l/m 0 min 0 min 153 W/m 19,3 km/h (3 Bft) 93,62 %
31.10.2023 11:24 11,8 C 12,2 C 8,9 C 92 % 1003,4 hPa 0,0 l/m 0 min 0 min 164 W/m 16,1 km/h (3 Bft) 95,74 %
31.10.2023 11:26 11,9 C 12,2 C 8,9 C 92 % 1003,4 hPa 0,0 l/m 0 min 0 min 163 W/m 19,3 km/h (3 Bft) 95,65 %
31.10.2023 11:28 12,1 C 12,8 C 8,9 C 92 % 1003,4 hPa 0,0 l/m 0 min 0 min 174 W/m 12,9 km/h (3 Bft) 97,87 %
31.10.2023 11:30 12,2 C 12,8 C 9,4 C 92 % 1003,4 hPa 0,0 l/m 0 min 0 min 191 W/m 9,7 km/h (2 Bft) 95,74 %
31.10.2023 11:32 12,3 C 12,8 C 9,4 C 92 % 1003,5 hPa 0,0 l/m 0 min 0 min 192 W/m 16,1 km/h (3 Bft) 97,87 %
31.10.2023 11:34 12,3 C 12,8 C 9,4 C 91 % 1003,5 hPa 0,0 l/m 0 min 0 min 178 W/m 16,1 km/h (3 Bft) 97,87 %
31.10.2023 11:36 12,3 C 12,8 C 9,4 C 91 % 1003,5 hPa 0,0 l/m 0 min 0 min 150 W/m 16,1 km/h (3 Bft) 97,87 %
31.10.2023 11:38 12,3 C 12,2 C 9,4 C 90 % 1003,5 hPa 0,0 l/m 0 min 0 min 138 W/m 16,1 km/h (3 Bft) 95,74 %
31.10.2023 11:40 12,3 C 12,8 C 9,4 C 90 % 1003,5 hPa 0,0 l/m 0 min 0 min 184 W/m 25,7 km/h (4 Bft) 97,83 %
31.10.2023 11:42 12,3 C 12,8 C 9,4 C 90 % 1003,6 hPa 0,0 l/m 0 min 0 min 198 W/m 12,9 km/h (3 Bft) 97,87 %
31.10.2023 11:44 12,3 C 12,8 C 9,4 C 90 % 1003,6 hPa 0,0 l/m 0 min 0 min 203 W/m 22,5 km/h (4 Bft) 100,00 %
31.10.2023 11:46 12,4 C 12,8 C 9,4 C 90 % 1003,6 hPa 0,0 l/m 0 min 0 min 192 W/m 19,3 km/h (3 Bft) 100,00 %
31.10.2023 11:48 12,4 C 12,8 C 9,4 C 89 % 1003,6 hPa 0,0 l/m 0 min 0 min 189 W/m 25,7 km/h (4 Bft) 100,00 %
31.10.2023 11:50 12,6 C 12,8 C 9,4 C 89 % 1003,6 hPa 0,0 l/m 0 min 0 min 159 W/m 19,3 km/h (3 Bft) 100,00 %
31.10.2023 11:52 12,6 C 12,8 C 9,4 C 89 % 1003,6 hPa 0,0 l/m 0 min 0 min 178 W/m 29,0 km/h (5 Bft) 100,00 %
31.10.2023 11:54 12,7 C 12,8 C 9,4 C 88 % 1003,7 hPa 0,0 l/m 0 min 0 min 160 W/m 29,0 km/h (5 Bft) 100,00 %
31.10.2023 11:56 12,8 C 12,8 C 9,4 C 88 % 1003,6 hPa 0,0 l/m 0 min 0 min 141 W/m 12,9 km/h (3 Bft) 100,00 %
31.10.2023 11:58 12,8 C 12,8 C 9,4 C 88 % 1003,6 hPa 0,0 l/m 0 min 0 min 145 W/m 9,7 km/h (2 Bft) 97,83 %
31.10.2023 12:00 12,8 C 12,8 C 9,4 C 88 % 1003,6 hPa 0,0 l/m 0 min 0 min 141 W/m 16,1 km/h (3 Bft) 100,00 %
31.10.2023 12:02 12,8 C 12,8 C 9,4 C 88 % 1003,6 hPa 0,0 l/m 0 min 0 min 156 W/m 25,7 km/h (4 Bft) 97,87 %
31.10.2023 12:04 12,8 C 12,8 C 9,4 C 87 % 1003,6 hPa 0,0 l/m 0 min 0 min 147 W/m 22,5 km/h (4 Bft) 100,00 %
31.10.2023 12:08 12,7 C 12,2 C 9,4 C 87 % 1003,7 hPa 0,0 l/m 0 min 0 min 135 W/m 16,1 km/h (3 Bft) 100,00 %
31.10.2023 12:10 12,6 C 12,2 C 8,9 C 87 % 1003,7 hPa 0,0 l/m 0 min 0 min 108 W/m 19,3 km/h (3 Bft) 100,00 %
31.10.2023 12:12 12,6 C 12,2 C 8,9 C 87 % 1003,7 hPa 0,0 l/m 0 min 0 min 82 W/m 16,1 km/h (3 Bft) 100,00 %
31.10.2023 12:14 12,6 C 12,2 C 8,9 C 87 % 1003,7 hPa 0,0 l/m 0 min 0 min 82 W/m 9,7 km/h (2 Bft) 100,00 %
31.10.2023 12:16 12,6 C 12,2 C 8,9 C 87 % 1003,7 hPa 0,0 l/m 0 min 0 min 88 W/m 16,1 km/h (3 Bft) 100,00 %
31.10.2023 12:18 12,6 C 12,2 C 8,9 C 87 % 1003,7 hPa 0,0 l/m 0 min 0 min 104 W/m 19,3 km/h (3 Bft) 100,00 %
31.10.2023 12:20 12,6 C 12,8 C 8,9 C 87 % 1003,7 hPa 0,0 l/m 0 min 0 min 142 W/m 12,9 km/h (3 Bft) 97,87 %
31.10.2023 12:22 12,7 C 12,8 C 9,4 C 87 % 1003,7 hPa 0,0 l/m 0 min 0 min 123 W/m 16,1 km/h (3 Bft) 100,00 %
31.10.2023 12:24 12,7 C 12,8 C 9,4 C 87 % 1003,7 hPa 0,0 l/m 0 min 0 min 107 W/m 16,1 km/h (3 Bft) 100,00 %
31.10.2023 12:26 12,7 C 12,2 C 9,4 C 87 % 1003,8 hPa 0,0 l/m 0 min 0 min 112 W/m 12,9 km/h (3 Bft) 100,00 %
31.10.2023 12:28 12,7 C 12,2 C 9,4 C 87 % 1003,7 hPa 0,0 l/m 0 min 0 min 132 W/m 25,7 km/h (4 Bft) 95,65 %
31.10.2023 12:30 12,7 C 12,8 C 9,4 C 87 % 1003,7 hPa 0,0 l/m 0 min 0 min 163 W/m 22,5 km/h (4 Bft) 100,00 %
31.10.2023 12:32 12,7 C 12,8 C 9,4 C 87 % 1003,7 hPa 0,0 l/m 0 min 0 min 166 W/m 19,3 km/h (3 Bft) 97,87 %
31.10.2023 12:34 12,8 C 13,3 C 9,4 C 87 % 1003,7 hPa 0,0 l/m 0 min 0 min 168 W/m 12,9 km/h (3 Bft) 97,87 %
31.10.2023 12:36 12,9 C 13,3 C 9,4 C 86 % 1003,7 hPa 0,0 l/m 0 min 0 min 158 W/m 12,9 km/h (3 Bft) 97,87 %
31.10.2023 12:38 13,0 C 13,3 C 9,4 C 86 % 1003,7 hPa 0,0 l/m 0 min 0 min 151 W/m 22,5 km/h (4 Bft) 97,83 %
31.10.2023 12:40 13,0 C 12,8 C 9,4 C 85 % 1003,8 hPa 0,0 l/m 0 min 0 min 103 W/m 16,1 km/h (3 Bft) 97,87 %
31.10.2023 12:42 13,0 C 12,8 C 9,4 C 85 % 1003,8 hPa 0,0 l/m 0 min 0 min 121 W/m 16,1 km/h (3 Bft) 97,87 %
31.10.2023 12:44 13,0 C 12,8 C 9,4 C 85 % 1003,8 hPa 0,0 l/m 0 min 0 min 108 W/m 16,1 km/h (3 Bft) 97,87 %
31.10.2023 12:46 13,0 C 12,8 C 9,4 C 85 % 1003,8 hPa 0,0 l/m 0 min 0 min 116 W/m 16,1 km/h (3 Bft) 97,87 %
31.10.2023 12:48 12,9 C 12,8 C 9,4 C 85 % 1003,8 hPa 0,0 l/m 0 min 0 min 141 W/m 12,9 km/h (3 Bft) 97,87 %
31.10.2023 12:50 12,9 C 12,8 C 9,4 C 86 % 1003,8 hPa 0,0 l/m 0 min 0 min 135 W/m 12,9 km/h (3 Bft) 97,83 %
31.10.2023 12:52 12,9 C 12,8 C 9,4 C 86 % 1003,8 hPa 0,0 l/m 0 min 0 min 139 W/m 12,9 km/h (3 Bft) 97,87 %
31.10.2023 12:54 12,9 C 12,8 C 9,4 C 86 % 1003,8 hPa 0,0 l/m 0 min 0 min 155 W/m 12,9 km/h (3 Bft) 97,87 %
31.10.2023 12:56 12,9 C 12,8 C 9,4 C 86 % 1003,8 hPa 0,0 l/m 0 min 0 min 145 W/m 16,1 km/h (3 Bft) 97,87 %
31.10.2023 12:58 12,9 C 12,8 C 9,4 C 86 % 1003,8 hPa 0,0 l/m 0 min 0 min 177 W/m 12,9 km/h (3 Bft) 97,87 %
31.10.2023 13:00 12,9 C 12,8 C 9,4 C 86 % 1003,8 hPa 0,0 l/m 0 min 0 min 163 W/m 16,1 km/h (3 Bft) 97,87 %
31.10.2023 13:02 12,8 C 12,8 C 9,4 C 86 % 1003,8 hPa 0,0 l/m 0 min 0 min 116 W/m 16,1 km/h (3 Bft) 97,87 %
31.10.2023 13:04 12,8 C 12,8 C 9,4 C 86 % 1003,8 hPa 0,0 l/m 0 min 0 min 105 W/m 9,7 km/h (2 Bft) 97,83 %
31.10.2023 13:06 12,8 C 12,8 C 9,4 C 86 % 1003,9 hPa 0,0 l/m 0 min 0 min 117 W/m 16,1 km/h (3 Bft) 93,62 %
31.10.2023 13:08 12,8 C 12,8 C 8,9 C 86 % 1003,9 hPa 0,0 l/m 0 min 0 min 110 W/m 19,3 km/h (3 Bft) 95,74 %
31.10.2023 13:10 12,8 C 12,2 C 8,9 C 86 % 1004,0 hPa 0,0 l/m 0 min 0 min 91 W/m 12,9 km/h (3 Bft) 100,00 %
31.10.2023 13:15 12,8 C 12,2 C 8,9 C 86 % 1003,9 hPa 0,0 l/m 0 min 0 min 146 W/m 19,3 km/h (3 Bft) 100,00 %
31.10.2023 13:18 12,8 C 12,8 C 8,9 C 86 % 1003,9 hPa 0,0 l/m 0 min 0 min 133 W/m 29,0 km/h (5 Bft) 100,00 %
31.10.2023 13:20 12,7 C 12,8 C 8,9 C 86 % 1003,9 hPa 0,0 l/m 2 min 0 min 267 W/m 19,3 km/h (3 Bft) 100,00 %
31.10.2023 13:22 12,8 C 12,8 C 9,4 C 86 % 1003,9 hPa 0,0 l/m 2 min 0 min 274 W/m 35,4 km/h (5 Bft) 97,87 %
31.10.2023 13:24 12,8 C 12,8 C 9,4 C 86 % 1004,0 hPa 0,0 l/m 0 min 0 min 141 W/m 19,3 km/h (3 Bft) 97,87 %
31.10.2023 13:26 12,8 C 12,8 C 9,4 C 85 % 1004,0 hPa 0,0 l/m 0 min 0 min 100 W/m 16,1 km/h (3 Bft) 97,87 %
31.10.2023 13:28 12,8 C 12,2 C 8,9 C 85 % 1004,0 hPa 0,0 l/m 0 min 0 min 97 W/m 19,3 km/h (3 Bft) 97,87 %
31.10.2023 13:30 12,7 C 12,2 C 8,9 C 85 % 1004,0 hPa 0,0 l/m 0 min 0 min 89 W/m 16,1 km/h (3 Bft) 97,87 %
31.10.2023 13:32 12,7 C 12,2 C 8,9 C 85 % 1004,1 hPa 0,0 l/m 0 min 0 min 107 W/m 19,3 km/h (3 Bft) 95,65 %
31.10.2023 13:34 12,7 C 12,2 C 8,9 C 85 % 1004,0 hPa 0,0 l/m 0 min 0 min 130 W/m 25,7 km/h (4 Bft) 95,74 %
31.10.2023 13:36 12,7 C 12,2 C 8,9 C 85 % 1004,1 hPa 0,0 l/m 0 min 0 min 133 W/m 16,1 km/h (3 Bft) 97,87 %
31.10.2023 13:38 12,7 C 12,2 C 8,9 C 85 % 1004,1 hPa 0,0 l/m 0 min 0 min 127 W/m 19,3 km/h (3 Bft) 97,87 %
31.10.2023 13:40 12,7 C 12,8 C 8,9 C 86 % 1004,1 hPa 0,0 l/m 2 min 0 min 282 W/m 12,9 km/h (3 Bft) 95,74 %
31.10.2023 13:42 12,7 C 12,8 C 8,9 C 86 % 1004,1 hPa 0,0 l/m 2 min 0 min 300 W/m 12,9 km/h (3 Bft) 95,74 %
31.10.2023 13:44 12,8 C 12,8 C 9,4 C 86 % 1004,2 hPa 0,0 l/m 2 min 0 min 273 W/m 12,9 km/h (3 Bft) 95,74 %
31.10.2023 13:46 12,8 C 12,8 C 9,4 C 86 % 1004,1 hPa 0,0 l/m 2 min 0 min 248 W/m 19,3 km/h (3 Bft) 93,62 %
31.10.2023 13:48 12,9 C 12,8 C 9,4 C 86 % 1004,0 hPa 0,0 l/m 2 min 0 min 226 W/m 16,1 km/h (3 Bft) 91,49 %
31.10.2023 13:50 12,9 C 12,8 C 9,4 C 86 % 1004,0 hPa 0,0 l/m 2 min 0 min 224 W/m 19,3 km/h (3 Bft) 95,74 %
31.10.2023 13:52 12,9 C 12,8 C 9,4 C 85 % 1004,0 hPa 0,0 l/m 2 min 0 min 218 W/m 16,1 km/h (3 Bft) 95,65 %
31.10.2023 13:54 12,9 C 12,8 C 9,4 C 86 % 1003,9 hPa 0,0 l/m 2 min 0 min 326 W/m 12,9 km/h (3 Bft) 94,34 %
31.10.2023 13:56 12,9 C 12,8 C 9,4 C 86 % 1004,0 hPa 0,0 l/m 2 min 0 min 358 W/m 12,9 km/h (3 Bft) 91,67 %
31.10.2023 13:58 13,0 C 12,8 C 9,4 C 86 % 1004,0 hPa 0,0 l/m 2 min 0 min 343 W/m 22,5 km/h (4 Bft) 94,23 %
31.10.2023 14:00 13,1 C 12,8 C 9,4 C 86 % 1004,0 hPa 0,0 l/m 2 min 0 min 364 W/m 6,4 km/h (2 Bft) 95,74 %
31.10.2023 14:02 13,1 C 12,8 C 9,4 C 86 % 1003,9 hPa 0,0 l/m 2 min 0 min 370 W/m 12,9 km/h (3 Bft) 95,74 %
31.10.2023 14:04 13,1 C 12,8 C 9,4 C 86 % 1004,0 hPa 0,0 l/m 2 min 0 min 332 W/m 6,4 km/h (2 Bft) 94,00 %
31.10.2023 14:08 13,2 C 12,8 C 9,4 C 86 % 1004,0 hPa 0,0 l/m 4 min 0 min 364 W/m 9,7 km/h (2 Bft) 95,83 %
31.10.2023 14:09 13,2 C 12,8 C 9,4 C 85 % 1004,0 hPa 0,0 l/m 1 min 0 min 372 W/m 6,4 km/h (2 Bft) 91,67 %
31.10.2023 14:12 13,2 C 12,8 C 9,4 C 85 % 1004,0 hPa 0,0 l/m 3 min 0 min 361 W/m 16,1 km/h (3 Bft) 93,10 %
31.10.2023 14:14 13,2 C 12,8 C 9,4 C 86 % 1004,0 hPa 0,0 l/m 2 min 0 min 349 W/m 12,9 km/h (3 Bft) 100,00 %
31.10.2023 14:16 13,3 C 12,8 C 9,4 C 85 % 1004,0 hPa 0,0 l/m 2 min 0 min 357 W/m 16,1 km/h (3 Bft) 97,87 %
31.10.2023 14:18 13,3 C 13,3 C 9,4 C 86 % 1004,0 hPa 0,0 l/m 2 min 0 min 322 W/m 16,1 km/h (3 Bft) 97,87 %
31.10.2023 14:20 13,3 C 12,8 C 9,4 C 85 % 1004,0 hPa 0,0 l/m 0 min 0 min 125 W/m 16,1 km/h (3 Bft) 97,87 %
31.10.2023 14:22 13,3 C 12,8 C 9,4 C 85 % 1003,9 hPa 0,0 l/m 0 min 0 min 102 W/m 9,7 km/h (2 Bft) 100,00 %
31.10.2023 14:24 13,3 C 12,8 C 9,4 C 85 % 1004,0 hPa 0,0 l/m 0 min 0 min 162 W/m 9,7 km/h (2 Bft) 100,00 %
31.10.2023 14:26 13,2 C 12,8 C 9,4 C 85 % 1003,9 hPa 0,0 l/m 0 min 0 min 114 W/m 22,5 km/h (4 Bft) 100,00 %
31.10.2023 14:28 13,2 C 12,8 C 9,4 C 85 % 1003,9 hPa 0,0 l/m 0 min 0 min 79 W/m 12,9 km/h (3 Bft) 100,00 %
31.10.2023 14:30 13,2 C 12,8 C 9,4 C 85 % 1004,0 hPa 0,0 l/m 0 min 0 min 73 W/m 12,9 km/h (3 Bft) 95,74 %
31.10.2023 14:32 13,2 C 12,8 C 9,4 C 85 % 1004,0 hPa 0,0 l/m 0 min 0 min 130 W/m 12,9 km/h (3 Bft) 100,00 %
31.10.2023 14:34 13,2 C 12,8 C 9,4 C 85 % 1004,0 hPa 0,0 l/m 2 min 0 min 313 W/m 16,1 km/h (3 Bft) 100,00 %
31.10.2023 14:36 13,2 C 13,3 C 9,4 C 85 % 1003,9 hPa 0,0 l/m 2 min 0 min 328 W/m 12,9 km/h (3 Bft) 100,00 %
31.10.2023 14:38 13,3 C 13,3 C 9,4 C 85 % 1004,0 hPa 0,0 l/m 2 min 0 min 165 W/m 12,9 km/h (3 Bft) 100,00 %
31.10.2023 14:40 13,3 C 13,3 C 9,4 C 84 % 1003,9 hPa 0,0 l/m 2 min 0 min 212 W/m 12,9 km/h (3 Bft) 97,87 %
31.10.2023 14:42 13,3 C 13,3 C 9,4 C 84 % 1004,0 hPa 0,0 l/m 2 min 0 min 270 W/m 12,9 km/h (3 Bft) 100,00 %
31.10.2023 14:44 13,4 C 13,3 C 9,4 C 84 % 1003,9 hPa 0,0 l/m 2 min 0 min 257 W/m 6,4 km/h (2 Bft) 100,00 %
31.10.2023 14:46 13,4 C 12,8 C 9,4 C 84 % 1004,0 hPa 0,0 l/m 0 min 0 min 135 W/m 12,9 km/h (3 Bft) 100,00 %
31.10.2023 14:48 13,3 C 12,8 C 9,4 C 84 % 1003,9 hPa 0,0 l/m 2 min 0 min 203 W/m 19,3 km/h (3 Bft) 95,74 %
31.10.2023 14:50 13,3 C 12,8 C 9,4 C 83 % 1003,9 hPa 0,0 l/m 2 min 0 min 279 W/m 16,1 km/h (3 Bft) 97,87 %
31.10.2023 14:52 13,3 C 12,8 C 9,4 C 83 % 1003,9 hPa 0,0 l/m 2 min 0 min 262 W/m 12,9 km/h (3 Bft) 95,74 %
31.10.2023 14:54 13,3 C 12,8 C 9,4 C 83 % 1003,9 hPa 0,0 l/m 0 min 0 min 102 W/m 9,7 km/h (2 Bft) 95,74 %
31.10.2023 14:56 13,3 C 12,8 C 9,4 C 84 % 1003,9 hPa 0,0 l/m 2 min 0 min 208 W/m 16,1 km/h (3 Bft) 97,87 %
31.10.2023 14:58 13,3 C 12,8 C 9,4 C 84 % 1003,9 hPa 0,0 l/m 0 min 0 min 79 W/m 6,4 km/h (2 Bft) 97,87 %
31.10.2023 15:00 13,3 C 12,8 C 8,9 C 84 % 1003,9 hPa 0,0 l/m 2 min 0 min 201 W/m 12,9 km/h (3 Bft) 95,74 %
31.10.2023 15:02 13,3 C 12,8 C 9,4 C 84 % 1003,9 hPa 0,0 l/m 2 min 0 min 253 W/m 12,9 km/h (3 Bft) 95,74 %
31.10.2023 15:04 13,3 C 12,8 C 9,4 C 84 % 1004,0 hPa 0,0 l/m 2 min 0 min 198 W/m 12,9 km/h (3 Bft) 96,08 %
31.10.2023 15:10 13,3 C 12,8 C 9,4 C 84 % 1004,0 hPa 0,0 l/m 5 min 0 min 131 W/m 16,1 km/h (3 Bft) 97,89 %
31.10.2023 15:12 13,3 C 12,8 C 9,4 C 84 % 1004,0 hPa 0,0 l/m 2 min 0 min 155 W/m 19,3 km/h (3 Bft) 94,29 %
31.10.2023 15:14 13,3 C 12,8 C 9,4 C 84 % 1004,0 hPa 0,0 l/m 0 min 0 min 62 W/m 16,1 km/h (3 Bft) 98,31 %
31.10.2023 15:16 13,3 C 12,8 C 9,4 C 83 % 1004,0 hPa 0,0 l/m 0 min 0 min 68 W/m 12,9 km/h (3 Bft) 94,29 %
31.10.2023 15:18 13,3 C 12,8 C 9,4 C 83 % 1004,0 hPa 0,0 l/m 0 min 0 min 72 W/m 16,1 km/h (3 Bft) 97,87 %
31.10.2023 15:20 13,3 C 12,8 C 9,4 C 83 % 1004,0 hPa 0,0 l/m 0 min 0 min 59 W/m 6,4 km/h (2 Bft) 97,87 %
31.10.2023 15:25 13,4 C 12,8 C 9,4 C 83 % 1004,0 hPa 0,0 l/m 0 min 0 min 80 W/m 19,3 km/h (3 Bft) 100,00 %
31.10.2023 15:28 13,4 C 12,8 C 9,4 C 82 % 1004,1 hPa 0,0 l/m 0 min 0 min 65 W/m 12,9 km/h (3 Bft) 100,00 %
31.10.2023 15:30 13,4 C 12,8 C 9,4 C 82 % 1004,1 hPa 0,0 l/m 0 min 0 min 86 W/m 12,9 km/h (3 Bft) 100,00 %
31.10.2023 15:32 13,4 C 12,8 C 9,4 C 82 % 1004,1 hPa 0,0 l/m 2 min 0 min 133 W/m 16,1 km/h (3 Bft) 100,00 %
31.10.2023 15:34 13,4 C 12,8 C 9,4 C 82 % 1004,1 hPa 0,0 l/m 2 min 0 min 113 W/m 12,9 km/h (3 Bft) 100,00 %
31.10.2023 15:36 13,4 C 12,8 C 9,4 C 82 % 1004,2 hPa 0,0 l/m 0 min 0 min 83 W/m 12,9 km/h (3 Bft) 100,00 %
31.10.2023 15:38 13,4 C 12,8 C 9,4 C 82 % 1004,2 hPa 0,0 l/m 0 min 0 min 43 W/m 6,4 km/h (2 Bft) 100,00 %
31.10.2023 15:40 13,4 C 12,8 C 8,9 C 82 % 1004,2 hPa 0,0 l/m 0 min 0 min 39 W/m 16,1 km/h (3 Bft) 100,00 %
31.10.2023 15:42 13,4 C 12,8 C 8,9 C 83 % 1004,3 hPa 0,0 l/m 0 min 0 min 39 W/m 9,7 km/h (2 Bft) 97,87 %
31.10.2023 15:44 13,3 C 12,8 C 8,9 C 83 % 1004,2 hPa 0,0 l/m 0 min 0 min 44 W/m 6,4 km/h (2 Bft) 100,00 %
31.10.2023 15:46 13,3 C 12,8 C 8,9 C 83 % 1004,2 hPa 0,0 l/m 0 min 0 min 50 W/m 12,9 km/h (3 Bft) 97,87 %
31.10.2023 15:48 13,3 C 12,8 C 8,9 C 83 % 1004,3 hPa 0,0 l/m 0 min 0 min 48 W/m 6,4 km/h (2 Bft) 97,87 %
31.10.2023 15:50 13,3 C 12,8 C 8,9 C 83 % 1004,3 hPa 0,0 l/m 0 min 0 min 56 W/m 12,9 km/h (3 Bft) 100,00 %
31.10.2023 15:52 13,2 C 12,8 C 8,9 C 83 % 1004,3 hPa 0,0 l/m 0 min 0 min 59 W/m 19,3 km/h (3 Bft) 97,87 %
31.10.2023 15:54 13,2 C 12,8 C 8,9 C 83 % 1004,3 hPa 0,0 l/m 0 min 0 min 60 W/m 9,7 km/h (2 Bft) 100,00 %
31.10.2023 15:56 13,2 C 12,8 C 8,9 C 83 % 1004,3 hPa 0,0 l/m 0 min 0 min 66 W/m 6,4 km/h (2 Bft) 100,00 %
31.10.2023 15:58 13,2 C 12,8 C 8,9 C 83 % 1004,3 hPa 0,0 l/m 0 min 0 min 61 W/m 9,7 km/h (2 Bft) 100,00 %
31.10.2023 16:00 13,2 C 12,8 C 8,9 C 83 % 1004,4 hPa 0,0 l/m 0 min 0 min 56 W/m 6,4 km/h (2 Bft) 95,74 %
31.10.2023 16:02 13,2 C 12,8 C 8,9 C 83 % 1004,4 hPa 0,0 l/m 0 min 0 min 52 W/m 3,2 km/h (1 Bft) 97,87 %
31.10.2023 16:04 13,2 C 12,8 C 8,9 C 83 % 1004,4 hPa 0,0 l/m 0 min 0 min 47 W/m 6,4 km/h (2 Bft) 97,83 %
31.10.2023 16:08 13,2 C 12,2 C 8,9 C 83 % 1004,4 hPa 0,0 l/m 0 min 0 min 38 W/m 9,7 km/h (2 Bft) 96,81 %
31.10.2023 16:09 13,2 C 12,2 C 8,9 C 83 % 1004,4 hPa 0,0 l/m 0 min 0 min 33 W/m 9,7 km/h (2 Bft) 95,83 %
31.10.2023 16:10 13,1 C 12,2 C 8,9 C 83 % 1004,4 hPa 0,0 l/m 0 min 0 min 35 W/m 9,7 km/h (2 Bft) 98,25 %
31.10.2023 16:14 13,1 C 12,2 C 8,9 C 84 % 1004,4 hPa 0,0 l/m 0 min 0 min 32 W/m 6,4 km/h (2 Bft) 95,74 %
31.10.2023 16:16 13,1 C 12,2 C 8,9 C 84 % 1004,5 hPa 0,0 l/m 0 min 0 min 35 W/m 6,4 km/h (2 Bft) 95,74 %
31.10.2023 16:18 13,1 C 12,2 C 8,9 C 84 % 1004,5 hPa 0,0 l/m 0 min 0 min 39 W/m 6,4 km/h (2 Bft) 95,74 %
31.10.2023 16:20 13,1 C 12,2 C 8,9 C 84 % 1004,5 hPa 0,0 l/m 0 min 0 min 37 W/m 6,4 km/h (2 Bft) 93,48 %
31.10.2023 16:22 13,1 C 12,2 C 8,9 C 84 % 1004,6 hPa 0,0 l/m 0 min 0 min 33 W/m 6,4 km/h (2 Bft) 95,74 %
31.10.2023 16:24 13,1 C 12,2 C 8,9 C 84 % 1004,6 hPa 0,0 l/m 0 min 0 min 30 W/m 6,4 km/h (2 Bft) 95,74 %
31.10.2023 16:26 13,0 C 12,2 C 8,9 C 85 % 1004,6 hPa 0,0 l/m 0 min 0 min 26 W/m 9,7 km/h (2 Bft) 95,74 %
31.10.2023 16:28 13,0 C 12,2 C 8,9 C 85 % 1004,7 hPa 0,0 l/m 0 min 0 min 25 W/m 12,9 km/h (3 Bft) 95,74 %
31.10.2023 16:30 13,0 C 12,2 C 8,9 C 85 % 1004,7 hPa 0,0 l/m 0 min 0 min 25 W/m 6,4 km/h (2 Bft) 95,74 %
31.10.2023 16:32 12,9 C 12,2 C 8,9 C 85 % 1004,7 hPa 0,0 l/m 0 min 0 min 22 W/m 19,3 km/h (3 Bft) 95,74 %
31.10.2023 16:34 12,9 C 12,2 C 8,9 C 85 % 1004,7 hPa 0,0 l/m 0 min 0 min 19 W/m 22,5 km/h (4 Bft) 95,74 %
31.10.2023 16:36 12,9 C 12,2 C 8,9 C 85 % 1004,7 hPa 0,0 l/m 0 min 0 min 15 W/m 19,3 km/h (3 Bft) 93,48 %
31.10.2023 16:38 12,9 C 12,2 C 8,9 C 85 % 1004,8 hPa 0,0 l/m 0 min 2 min 11 W/m 6,4 km/h (2 Bft) 95,74 %
31.10.2023 16:40 12,9 C 12,2 C 8,3 C 86 % 1004,8 hPa 0,0 l/m 0 min 2 min 8 W/m 12,9 km/h (3 Bft) 97,87 %
31.10.2023 16:42 12,9 C 12,2 C 8,3 C 86 % 1004,9 hPa 0,0 l/m 0 min 2 min 6 W/m 16,1 km/h (3 Bft) 95,74 %
31.10.2023 16:44 12,9 C 11,7 C 8,3 C 86 % 1004,9 hPa 0,0 l/m 0 min 2 min 5 W/m 12,9 km/h (3 Bft) 97,87 %
31.10.2023 16:46 12,8 C 11,7 C 7,8 C 87 % 1004,9 hPa 0,0 l/m 0 min 2 min 6 W/m 12,9 km/h (3 Bft) 97,87 %
31.10.2023 16:48 12,7 C 11,7 C 7,8 C 88 % 1005,0 hPa 0,2 l/m 0 min 2 min 5 W/m 6,4 km/h (2 Bft) 95,74 %
31.10.2023 16:50 12,7 C 11,7 C 7,2 C 88 % 1005,0 hPa 0,0 l/m 0 min 2 min 0 W/m 9,7 km/h (2 Bft) 95,65 %
31.10.2023 16:52 12,6 C 11,7 C 7,2 C 89 % 1005,0 hPa 0,0 l/m 0 min 2 min 0 W/m 9,7 km/h (2 Bft) 93,62 %
31.10.2023 16:54 12,6 C 11,1 C 7,2 C 89 % 1005,1 hPa 0,2 l/m 0 min 2 min 0 W/m 9,7 km/h (2 Bft) 95,74 %
31.10.2023 16:56 12,4 C 11,1 C 7,2 C 89 % 1005,0 hPa 0,2 l/m 0 min 2 min 0 W/m 9,7 km/h (2 Bft) 97,87 %
31.10.2023 16:58 12,4 C 11,1 C 7,2 C 90 % 1005,0 hPa 0,0 l/m 0 min 2 min 0 W/m 9,7 km/h (2 Bft) 98,25 %
31.10.2023 17:00 12,3 C 11,1 C 7,2 C 90 % 1005,1 hPa 0,0 l/m 0 min 2 min 0 W/m 6,4 km/h (2 Bft) 97,87 %
31.10.2023 17:02 12,2 C 10,6 C 7,2 C 91 % 1005,1 hPa 0,0 l/m 0 min 2 min 0 W/m 6,4 km/h (2 Bft) 95,65 %
31.10.2023 17:04 12,2 C 10,6 C 7,2 C 91 % 1005,1 hPa 0,2 l/m 0 min 2 min 0 W/m 3,2 km/h (1 Bft) 97,73 %
31.10.2023 17:08 12,1 C 10,6 C 7,2 C 92 % 1005,0 hPa 0,0 l/m 0 min 0 min 0 W/m 9,7 km/h (2 Bft) 96,08 %
31.10.2023 17:09 12,1 C 10,6 C 7,2 C 92 % 1005,1 hPa 0,0 l/m 0 min 0 min 0 W/m 6,4 km/h (2 Bft) 95,65 %
31.10.2023 17:10 12,1 C 10,6 C 7,2 C 92 % 1005,1 hPa 0,0 l/m 0 min 1 min 0 W/m 9,7 km/h (2 Bft) 97,37 %
31.10.2023 17:14 11,9 C 10,6 C 7,2 C 92 % 1005,0 hPa 0,0 l/m 0 min 4 min 0 W/m 12,9 km/h (3 Bft) 97,87 %
31.10.2023 17:16 11,9 C 10,6 C 7,2 C 92 % 1005,1 hPa 0,0 l/m 0 min 2 min 0 W/m 19,3 km/h (3 Bft) 95,74 %
31.10.2023 17:18 11,8 C 10,6 C 7,2 C 93 % 1005,1 hPa 0,0 l/m 0 min 2 min 0 W/m 6,4 km/h (2 Bft) 97,87 %
31.10.2023 17:20 11,8 C 10,6 C 7,2 C 93 % 1005,1 hPa 0,0 l/m 0 min 0 min 0 W/m 12,9 km/h (3 Bft) 100,00 %
31.10.2023 17:22 11,7 C 10,6 C 7,2 C 93 % 1005,1 hPa 0,0 l/m 0 min 0 min 0 W/m 12,9 km/h (3 Bft) 97,83 %
31.10.2023 17:24 11,7 C 10,6 C 7,2 C 93 % 1005,1 hPa 0,0 l/m 0 min 2 min 0 W/m 3,2 km/h (1 Bft) 100,00 %
31.10.2023 17:26 11,7 C 10,6 C 7,2 C 93 % 1005,2 hPa 0,0 l/m 0 min 2 min 0 W/m 3,2 km/h (1 Bft) 100,00 %
31.10.2023 17:28 11,6 C 10,6 C 7,2 C 94 % 1005,2 hPa 0,0 l/m 0 min 2 min 0 W/m 12,9 km/h (3 Bft) 100,00 %
31.10.2023 17:30 11,6 C 10,6 C 7,2 C 94 % 1005,2 hPa 0,0 l/m 0 min 2 min 0 W/m 9,7 km/h (2 Bft) 97,87 %
31.10.2023 17:32 11,6 C 10,6 C 7,2 C 94 % 1005,2 hPa 0,0 l/m 0 min 2 min 0 W/m 6,4 km/h (2 Bft) 100,00 %
31.10.2023 17:34 11,6 C 10,6 C 7,2 C 94 % 1005,2 hPa 0,0 l/m 0 min 0 min 0 W/m 6,4 km/h (2 Bft) 100,00 %
31.10.2023 17:35 11,6 C 10,6 C 7,2 C 94 % 1005,2 hPa 0,0 l/m 0 min 0 min 0 W/m 6,4 km/h (2 Bft) 100,00 %
31.10.2023 17:40 11,5 C 10,6 C 7,2 C 95 % 1005,2 hPa 0,0 l/m 0 min 0 min 0 W/m 9,7 km/h (2 Bft) 100,00 %
31.10.2023 17:42 11,5 C 10,6 C 7,2 C 94 % 1005,3 hPa 0,0 l/m 0 min 0 min 0 W/m 16,1 km/h (3 Bft) 100,00 %
31.10.2023 17:44 11,5 C 10,6 C 7,2 C 95 % 1005,3 hPa 0,0 l/m 0 min 0 min 0 W/m 9,7 km/h (2 Bft) 100,00 %
31.10.2023 17:46 11,4 C 10,6 C 7,2 C 95 % 1005,4 hPa 0,0 l/m 0 min 0 min 0 W/m 6,4 km/h (2 Bft) 97,87 %
31.10.2023 17:48 11,4 C 10,6 C 7,2 C 95 % 1005,4 hPa 0,0 l/m 0 min 0 min 0 W/m 12,9 km/h (3 Bft) 97,83 %
31.10.2023 17:50 11,4 C 10,6 C 7,2 C 95 % 1005,4 hPa 0,2 l/m 0 min 0 min 0 W/m 12,9 km/h (3 Bft) 100,00 %
31.10.2023 17:52 11,4 C 10,6 C 7,2 C 95 % 1005,4 hPa 0,0 l/m 0 min 0 min 0 W/m 16,1 km/h (3 Bft) 95,74 %
31.10.2023 17:54 11,4 C 10,6 C 7,2 C 95 % 1005,4 hPa 0,0 l/m 0 min 0 min 0 W/m 9,7 km/h (2 Bft) 97,87 %
31.10.2023 17:56 11,3 C 10,6 C 7,2 C 95 % 1005,3 hPa 0,0 l/m 0 min 2 min 0 W/m 6,4 km/h (2 Bft) 100,00 %
31.10.2023 17:58 11,3 C 10,6 C 7,2 C 95 % 1005,4 hPa 0,0 l/m 0 min 2 min 0 W/m 6,4 km/h (2 Bft) 100,00 %
31.10.2023 18:00 11,3 C 10,6 C 7,2 C 95 % 1005,3 hPa 0,0 l/m 0 min 2 min 0 W/m 6,4 km/h (2 Bft) 100,00 %
31.10.2023 18:02 11,3 C 10,6 C 7,2 C 96 % 1005,4 hPa 0,0 l/m 0 min 2 min 0 W/m 6,4 km/h (2 Bft) 100,00 %
31.10.2023 18:04 11,3 C 10,6 C 7,2 C 96 % 1005,5 hPa 0,0 l/m 0 min 0 min 0 W/m 6,4 km/h (2 Bft) 100,00 %
31.10.2023 18:08 11,3 C 10,6 C 7,2 C 96 % 1005,5 hPa 0,0 l/m 0 min 0 min 0 W/m 12,9 km/h (3 Bft) 74,36 %
31.10.2023 18:10 11,3 C 10,6 C 7,2 C 96 % 1005,4 hPa 0,0 l/m 0 min 0 min 0 W/m 9,7 km/h (2 Bft) 96,61 %
31.10.2023 18:12 11,3 C 10,6 C 7,2 C 96 % 1005,5 hPa 0,0 l/m 0 min 0 min 0 W/m 6,4 km/h (2 Bft) 100,00 %
31.10.2023 18:16 11,3 C 10,6 C 7,2 C 96 % 1005,5 hPa 0,2 l/m 0 min 0 min 0 W/m 12,9 km/h (3 Bft) 100,00 %
31.10.2023 18:18 11,3 C 10,6 C 7,2 C 96 % 1005,5 hPa 0,0 l/m 0 min 0 min 0 W/m 9,7 km/h (2 Bft) 100,00 %
31.10.2023 18:20 11,3 C 10,6 C 7,2 C 96 % 1005,5 hPa 0,0 l/m 0 min 0 min 0 W/m 12,9 km/h (3 Bft) 97,87 %
31.10.2023 18:22 11,2 C 10,6 C 7,2 C 96 % 1005,6 hPa 0,0 l/m 0 min 0 min 0 W/m 3,2 km/h (1 Bft) 97,87 %
31.10.2023 18:24 11,2 C 10,6 C 7,2 C 96 % 1005,7 hPa 0,0 l/m 0 min 0 min 0 W/m 12,9 km/h (3 Bft) 97,87 %
31.10.2023 18:26 11,2 C 10,6 C 7,2 C 96 % 1005,7 hPa 0,0 l/m 0 min 0 min 0 W/m 6,4 km/h (2 Bft) 95,74 %
31.10.2023 18:28 11,2 C 10,6 C 7,2 C 96 % 1005,7 hPa 0,0 l/m 0 min 0 min 0 W/m 12,9 km/h (3 Bft) 97,87 %
31.10.2023 18:30 11,2 C 10,6 C 7,2 C 96 % 1005,8 hPa 0,0 l/m 0 min 0 min 0 W/m 3,2 km/h (1 Bft) 97,87 %
31.10.2023 18:32 11,2 C 10,6 C 7,2 C 96 % 1005,8 hPa 0,0 l/m 0 min 0 min 0 W/m 3,2 km/h (1 Bft) 97,92 %
31.10.2023 18:34 11,2 C 10,6 C 7,2 C 96 % 1005,8 hPa 0,0 l/m 0 min 0 min 0 W/m 3,2 km/h (1 Bft) 97,87 %
31.10.2023 18:36 11,2 C 10,6 C 7,2 C 96 % 1005,9 hPa 0,0 l/m 0 min 0 min 0 W/m 12,9 km/h (3 Bft) 95,74 %
31.10.2023 18:38 11,2 C 10,6 C 7,2 C 96 % 1005,9 hPa 0,0 l/m 0 min 0 min 0 W/m 9,7 km/h (2 Bft) 97,87 %
31.10.2023 18:40 11,2 C 10,6 C 7,2 C 97 % 1005,9 hPa 0,0 l/m 0 min 0 min 0 W/m 0,0 km/h (0 Bft) 95,74 %
31.10.2023 18:42 11,2 C 10,6 C 7,2 C 97 % 1006,0 hPa 0,0 l/m 0 min 0 min 0 W/m 0,0 km/h (0 Bft) 91,49 %
31.10.2023 18:44 11,1 C 10,6 C 7,2 C 97 % 1006,0 hPa 0,0 l/m 0 min 0 min 0 W/m 0,0 km/h (0 Bft) 95,74 %
31.10.2023 18:46 11,2 C 10,6 C 7,2 C 97 % 1006,0 hPa 0,0 l/m 0 min 0 min 0 W/m 0,0 km/h (0 Bft) 95,65 %
31.10.2023 18:48 11,2 C 10,6 C 7,2 C 97 % 1006,0 hPa 0,0 l/m 0 min 0 min 0 W/m 0,0 km/h (0 Bft) 95,74 %
31.10.2023 18:50 11,2 C 10,6 C 7,2 C 97 % 1006,0 hPa 0,0 l/m 0 min 0 min 0 W/m 0,0 km/h (0 Bft) 93,62 %
31.10.2023 18:52 11,1 C 10,6 C 7,2 C 97 % 1006,0 hPa 0,0 l/m 0 min 0 min 0 W/m 0,0 km/h (0 Bft) 95,74 %
31.10.2023 18:54 11,2 C 10,6 C 7,2 C 97 % 1006,0 hPa 0,0 l/m 0 min 0 min 0 W/m 0,0 km/h (0 Bft) 95,74 %
31.10.2023 18:56 11,2 C 10,6 C 7,2 C 97 % 1006,0 hPa 0,0 l/m 0 min 0 min 0 W/m 0,0 km/h (0 Bft) 95,74 %
31.10.2023 18:58 11,1 C 10,6 C 7,2 C 97 % 1006,0 hPa 0,0 l/m 0 min 0 min 0 W/m 0,0 km/h (0 Bft) 95,74 %
31.10.2023 19:00 11,2 C 10,6 C 7,2 C 97 % 1006,0 hPa 0,0 l/m 0 min 0 min 0 W/m 0,0 km/h (0 Bft) 95,74 %
31.10.2023 19:02 11,2 C 10,6 C 7,2 C 97 % 1006,0 hPa 0,0 l/m 0 min 0 min 0 W/m 0,0 km/h (0 Bft) 97,83 %
31.10.2023 19:04 11,1 C 10,6 C 7,2 C 97 % 1006,0 hPa 0,0 l/m 0 min 0 min 0 W/m 0,0 km/h (0 Bft) 95,74 %
31.10.2023 19:08 11,1 C 10,6 C 7,2 C 97 % 1006,0 hPa 0,0 l/m 0 min 0 min 0 W/m 0,0 km/h (0 Bft) 97,85 %
31.10.2023 19:09 11,1 C 10,6 C 7,2 C 97 % 1006,1 hPa 0,0 l/m 0 min 0 min 0 W/m 0,0 km/h (0 Bft) 95,83 %
31.10.2023 19:10 11,1 C 10,6 C 7,2 C 97 % 1006,1 hPa 0,0 l/m 0 min 0 min 0 W/m 0,0 km/h (0 Bft) 100,00 %
31.10.2023 19:14 11,1 C 10,6 C 7,2 C 97 % 1006,1 hPa 0,0 l/m 0 min 0 min 0 W/m 0,0 km/h (0 Bft) 98,28 %
31.10.2023 19:16 11,1 C 10,6 C 7,2 C 97 % 1006,1 hPa 0,0 l/m 0 min 0 min 0 W/m 0,0 km/h (0 Bft) 97,14 %
31.10.2023 19:18 11,1 C 10,6 C 7,2 C 97 % 1006,1 hPa 0,0 l/m 0 min 0 min 0 W/m 0,0 km/h (0 Bft) 95,92 %
31.10.2023 19:20 11,1 C 10,6 C 7,2 C 97 % 1006,1 hPa 0,0 l/m 0 min 0 min 0 W/m 9,7 km/h (2 Bft) 97,87 %
31.10.2023 19:22 11,1 C 10,6 C 7,2 C 97 % 1006,1 hPa 0,0 l/m 0 min 0 min 0 W/m 9,7 km/h (2 Bft) 97,87 %
31.10.2023 19:24 11,1 C 10,6 C 7,2 C 97 % 1006,2 hPa 0,0 l/m 0 min 0 min 0 W/m 9,7 km/h (2 Bft) 97,87 %
31.10.2023 19:26 11,1 C 10,6 C 7,2 C 97 % 1006,3 hPa 0,0 l/m 0 min 0 min 0 W/m 6,4 km/h (2 Bft) 97,83 %
31.10.2023 19:28 11,2 C 10,6 C 7,2 C 97 % 1006,3 hPa 0,0 l/m 0 min 2 min 0 W/m 6,4 km/h (2 Bft) 97,87 %
31.10.2023 19:30 11,2 C 10,6 C 7,2 C 97 % 1006,3 hPa 0,0 l/m 0 min 0 min 0 W/m 6,4 km/h (2 Bft) 95,74 %
31.10.2023 19:32 11,2 C 10,6 C 7,2 C 97 % 1006,3 hPa 0,0 l/m 0 min 0 min 0 W/m 6,4 km/h (2 Bft) 97,87 %
31.10.2023 19:34 11,2 C 10,6 C 7,2 C 97 % 1006,3 hPa 0,0 l/m 0 min 0 min 0 W/m 0,0 km/h (0 Bft) 97,87 %
31.10.2023 19:36 11,2 C 10,6 C 7,2 C 97 % 1006,3 hPa 0,0 l/m 0 min 0 min 0 W/m 12,9 km/h (3 Bft) 95,74 %
31.10.2023 19:38 11,2 C 10,6 C 7,2 C 97 % 1006,2 hPa 0,0 l/m 0 min 0 min 0 W/m 6,4 km/h (2 Bft) 97,92 %
31.10.2023 19:40 11,2 C 10,6 C 7,2 C 97 % 1006,2 hPa 0,0 l/m 0 min 0 min 0 W/m 9,7 km/h (2 Bft) 97,83 %
31.10.2023 19:42 11,2 C 10,6 C 7,2 C 97 % 1006,3 hPa 0,0 l/m 0 min 0 min 0 W/m 19,3 km/h (3 Bft) 95,74 %
31.10.2023 19:44 11,2 C 10,6 C 7,2 C 97 % 1006,2 hPa 0,0 l/m 0 min 0 min 0 W/m 12,9 km/h (3 Bft) 97,87 %
31.10.2023 19:46 11,2 C 10,6 C 7,2 C 97 % 1006,2 hPa 0,0 l/m 0 min 0 min 0 W/m 12,9 km/h (3 Bft) 93,62 %
31.10.2023 19:48 11,2 C 10,6 C 7,2 C 97 % 1006,2 hPa 0,0 l/m 0 min 0 min 0 W/m 6,4 km/h (2 Bft) 95,74 %
31.10.2023 19:50 11,2 C 10,6 C 7,2 C 97 % 1006,2 hPa 0,0 l/m 0 min 0 min 0 W/m 6,4 km/h (2 Bft) 97,87 %
31.10.2023 19:52 11,2 C 10,6 C 7,2 C 97 % 1006,3 hPa 0,0 l/m 0 min 0 min 0 W/m 6,4 km/h (2 Bft) 97,87 %
31.10.2023 19:54 11,2 C 10,6 C 7,2 C 97 % 1006,2 hPa 0,0 l/m 0 min 0 min 0 W/m 9,7 km/h (2 Bft) 98,08 %
31.10.2023 19:56 11,2 C 10,6 C 7,2 C 97 % 1006,2 hPa 0,0 l/m 0 min 0 min 0 W/m 9,7 km/h (2 Bft) 97,87 %
31.10.2023 19:58 11,2 C 10,6 C 7,2 C 97 % 1006,2 hPa 0,0 l/m 0 min 0 min 0 W/m 6,4 km/h (2 Bft) 97,87 %
31.10.2023 20:00 11,2 C 10,6 C 7,2 C 97 % 1006,2 hPa 0,0 l/m 0 min 0 min 0 W/m 6,4 km/h (2 Bft) 95,74 %
31.10.2023 20:02 11,2 C 10,6 C 7,2 C 97 % 1006,1 hPa 0,0 l/m 0 min 0 min 0 W/m 12,9 km/h (3 Bft) 95,74 %
31.10.2023 20:04 11,2 C 10,6 C 7,2 C 97 % 1006,1 hPa 0,0 l/m 0 min 0 min 0 W/m 12,9 km/h (3 Bft) 100,00 %
31.10.2023 20:08 11,2 C 10,6 C 7,2 C 97 % 1006,1 hPa 0,0 l/m 0 min 0 min 0 W/m 12,9 km/h (3 Bft) 98,82 %
31.10.2023 20:09 11,2 C 10,6 C 7,2 C 97 % 1006,1 hPa 0,0 l/m 0 min 0 min 0 W/m 6,4 km/h (2 Bft) 100,00 %
31.10.2023 20:10 11,2 C 10,6 C 7,2 C 97 % 1006,1 hPa 0,0 l/m 0 min 0 min 0 W/m 12,9 km/h (3 Bft) 100,00 %
31.10.2023 20:14 11,2 C 10,6 C 7,2 C 97 % 1006,1 hPa 0,0 l/m 0 min 0 min 0 W/m 3,2 km/h (1 Bft) 100,00 %
31.10.2023 20:16 11,2 C 10,6 C 7,2 C 97 % 1006,0 hPa 0,0 l/m 0 min 0 min 0 W/m 3,2 km/h (1 Bft) 100,00 %
31.10.2023 20:18 11,1 C 10,6 C 7,2 C 97 % 1006,0 hPa 0,0 l/m 0 min 0 min 0 W/m 3,2 km/h (1 Bft) 95,74 %
31.10.2023 20:20 11,1 C 10,6 C 7,2 C 97 % 1006,0 hPa 0,0 l/m 0 min 0 min 0 W/m 9,7 km/h (2 Bft) 97,87 %
31.10.2023 20:22 11,1 C 10,6 C 7,2 C 97 % 1006,1 hPa 0,0 l/m 0 min 0 min 0 W/m 6,4 km/h (2 Bft) 100,00 %
31.10.2023 20:24 11,2 C 10,6 C 7,2 C 97 % 1006,0 hPa 0,0 l/m 0 min 0 min 0 W/m 12,9 km/h (3 Bft) 100,00 %
31.10.2023 20:26 11,1 C 10,6 C 7,2 C 97 % 1006,0 hPa 0,0 l/m 0 min 0 min 0 W/m 19,3 km/h (3 Bft) 100,00 %
31.10.2023 20:28 11,1 C 10,6 C 7,2 C 97 % 1006,1 hPa 0,0 l/m 0 min 0 min 0 W/m 6,4 km/h (2 Bft) 97,87 %
31.10.2023 20:30 11,2 C 10,6 C 7,2 C 97 % 1006,1 hPa 0,0 l/m 0 min 0 min 0 W/m 12,9 km/h (3 Bft) 97,87 %
31.10.2023 20:32 11,1 C 10,6 C 7,2 C 97 % 1006,0 hPa 0,0 l/m 0 min 0 min 0 W/m 6,4 km/h (2 Bft) 97,87 %
31.10.2023 20:34 11,1 C 10,6 C 7,2 C 97 % 1006,1 hPa 0,0 l/m 0 min 0 min 0 W/m 9,7 km/h (2 Bft) 97,87 %
31.10.2023 20:36 11,1 C 10,6 C 7,2 C 97 % 1006,1 hPa 0,0 l/m 0 min 0 min 0 W/m 6,4 km/h (2 Bft) 95,74 %
31.10.2023 20:38 11,1 C 10,6 C 7,2 C 97 % 1006,1 hPa 0,0 l/m 0 min 0 min 0 W/m 16,1 km/h (3 Bft) 95,65 %
31.10.2023 20:40 11,1 C 10,6 C 7,2 C 97 % 1006,1 hPa 0,0 l/m 0 min 0 min 0 W/m 6,4 km/h (2 Bft) 95,74 %
31.10.2023 20:42 11,1 C 10,6 C 7,2 C 97 % 1006,1 hPa 0,0 l/m 0 min 0 min 0 W/m 16,1 km/h (3 Bft) 97,87 %
31.10.2023 20:44 11,1 C 10,6 C 7,2 C 97 % 1006,1 hPa 0,0 l/m 0 min 0 min 0 W/m 9,7 km/h (2 Bft) 97,87 %
31.10.2023 20:46 11,1 C 10,6 C 7,2 C 97 % 1006,0 hPa 0,0 l/m 0 min 0 min 0 W/m 12,9 km/h (3 Bft) 95,74 %
31.10.2023 20:48 11,1 C 10,6 C 7,2 C 97 % 1006,0 hPa 0,0 l/m 0 min 0 min 0 W/m 16,1 km/h (3 Bft) 97,87 %
31.10.2023 20:50 11,1 C 10,6 C 7,2 C 97 % 1006,0 hPa 0,0 l/m 0 min 0 min 0 W/m 6,4 km/h (2 Bft) 93,62 %
31.10.2023 20:52 11,1 C 10,6 C 7,2 C 97 % 1006,0 hPa 0,0 l/m 0 min 0 min 0 W/m 16,1 km/h (3 Bft) 95,65 %
31.10.2023 20:54 11,2 C 10,6 C 7,2 C 97 % 1006,0 hPa 0,0 l/m 0 min 0 min 0 W/m 12,9 km/h (3 Bft) 95,74 %
31.10.2023 20:56 11,2 C 10,6 C 7,2 C 97 % 1006,1 hPa 0,0 l/m 0 min 0 min 0 W/m 16,1 km/h (3 Bft) 95,74 %
31.10.2023 20:58 11,2 C 10,6 C 7,2 C 97 % 1006,0 hPa 0,0 l/m 0 min 0 min 0 W/m 6,4 km/h (2 Bft) 95,74 %
31.10.2023 21:00 11,1 C 10,6 C 7,2 C 97 % 1006,1 hPa 0,0 l/m 0 min 0 min 0 W/m 9,7 km/h (2 Bft) 97,87 %
31.10.2023 21:02 11,1 C 10,6 C 7,2 C 97 % 1006,1 hPa 0,0 l/m 0 min 0 min 0 W/m 16,1 km/h (3 Bft) 97,87 %
31.10.2023 21:04 11,1 C 10,6 C 7,2 C 97 % 1006,1 hPa 0,0 l/m 0 min 0 min 0 W/m 9,7 km/h (2 Bft) 96,15 %
31.10.2023 21:06 11,1 C 10,6 C 7,2 C 97 % 1006,0 hPa 0,0 l/m 0 min 0 min 0 W/m 9,7 km/h (2 Bft) 97,92 %
31.10.2023 21:08 11,1 C 10,6 C 7,2 C 97 % 1006,1 hPa 0,0 l/m 0 min 0 min 0 W/m 9,7 km/h (2 Bft) 97,87 %
31.10.2023 21:10 11,1 C 10,6 C 7,2 C 97 % 1006,1 hPa 0,0 l/m 0 min 0 min 0 W/m 6,4 km/h (2 Bft) 95,74 %
31.10.2023 21:12 11,1 C 10,6 C 7,2 C 97 % 1006,1 hPa 0,0 l/m 0 min 0 min 0 W/m 9,7 km/h (2 Bft) 97,87 %
31.10.2023 21:14 11,1 C 10,6 C 7,2 C 97 % 1006,1 hPa 0,0 l/m 0 min 0 min 0 W/m 12,9 km/h (3 Bft) 97,87 %
31.10.2023 21:16 11,1 C 10,6 C 7,2 C 97 % 1006,1 hPa 0,0 l/m 0 min 0 min 0 W/m 12,9 km/h (3 Bft) 100,00 %
31.10.2023 21:18 11,1 C 10,6 C 7,2 C 97 % 1006,1 hPa 0,0 l/m 0 min 0 min 0 W/m 19,3 km/h (3 Bft) 95,74 %
31.10.2023 21:20 11,1 C 10,6 C 7,2 C 97 % 1006,1 hPa 0,0 l/m 0 min 0 min 0 W/m 12,9 km/h (3 Bft) 97,83 %
31.10.2023 21:22 11,1 C 10,6 C 7,2 C 97 % 1006,0 hPa 0,0 l/m 0 min 0 min 0 W/m 22,5 km/h (4 Bft) 97,87 %
31.10.2023 21:24 11,1 C 10,6 C 7,2 C 97 % 1006,1 hPa 0,0 l/m 0 min 0 min 0 W/m 12,9 km/h (3 Bft) 97,87 %
31.10.2023 21:26 11,1 C 10,6 C 7,2 C 97 % 1006,1 hPa 0,0 l/m 0 min 0 min 0 W/m 16,1 km/h (3 Bft) 97,87 %
31.10.2023 21:28 11,0 C 10,6 C 7,2 C 97 % 1006,0 hPa 0,0 l/m 0 min 0 min 0 W/m 12,9 km/h (3 Bft) 97,87 %
31.10.2023 21:30 11,1 C 10,6 C 7,2 C 97 % 1005,9 hPa 0,0 l/m 0 min 0 min 0 W/m 22,5 km/h (4 Bft) 100,00 %
31.10.2023 21:32 11,0 C 10,6 C 7,2 C 97 % 1006,1 hPa 0,0 l/m 0 min 0 min 0 W/m 12,9 km/h (3 Bft) 97,87 %
31.10.2023 21:34 11,0 C 10,6 C 7,2 C 97 % 1006,0 hPa 0,0 l/m 0 min 0 min 0 W/m 12,9 km/h (3 Bft) 100,00 %
31.10.2023 21:36 11,1 C 10,6 C 7,2 C 97 % 1006,1 hPa 0,0 l/m 0 min 0 min 0 W/m 12,9 km/h (3 Bft) 100,00 %
31.10.2023 21:38 11,1 C 10,6 C 7,2 C 97 % 1006,1 hPa 0,0 l/m 0 min 0 min 0 W/m 12,9 km/h (3 Bft) 100,00 %
31.10.2023 21:40 11,1 C 10,6 C 7,2 C 97 % 1006,1 hPa 0,0 l/m 0 min 0 min 0 W/m 16,1 km/h (3 Bft) 97,87 %
31.10.2023 21:42 11,1 C 10,6 C 7,2 C 97 % 1006,1 hPa 0,0 l/m 0 min 0 min 0 W/m 16,1 km/h (3 Bft) 100,00 %
31.10.2023 21:44 11,1 C 10,6 C 7,2 C 97 % 1006,2 hPa 0,0 l/m 0 min 0 min 0 W/m 16,1 km/h (3 Bft) 100,00 %
31.10.2023 21:46 11,1 C 10,6 C 7,2 C 97 % 1006,1 hPa 0,0 l/m 0 min 0 min 0 W/m 12,9 km/h (3 Bft) 97,87 %
31.10.2023 21:48 11,1 C 10,6 C 7,2 C 97 % 1006,2 hPa 0,0 l/m 0 min 0 min 0 W/m 25,7 km/h (4 Bft) 100,00 %
31.10.2023 21:50 11,1 C 10,6 C 7,2 C 97 % 1006,2 hPa 0,0 l/m 0 min 0 min 0 W/m 16,1 km/h (3 Bft) 100,00 %
31.10.2023 21:52 11,1 C 10,6 C 7,2 C 97 % 1006,3 hPa 0,0 l/m 0 min 0 min 0 W/m 12,9 km/h (3 Bft) 100,00 %
31.10.2023 21:54 11,1 C 10,6 C 7,2 C 97 % 1006,2 hPa 0,0 l/m 0 min 0 min 0 W/m 12,9 km/h (3 Bft) 100,00 %
31.10.2023 21:56 11,1 C 10,6 C 7,2 C 97 % 1006,1 hPa 0,0 l/m 0 min 0 min 0 W/m 12,9 km/h (3 Bft) 100,00 %
31.10.2023 21:58 11,1 C 10,6 C 7,2 C 97 % 1006,1 hPa 0,0 l/m 0 min 0 min 0 W/m 19,3 km/h (3 Bft) 100,00 %
31.10.2023 22:00 11,1 C 10,6 C 7,2 C 97 % 1006,0 hPa 0,0 l/m 0 min 0 min 0 W/m 19,3 km/h (3 Bft) 100,00 %
31.10.2023 22:02 11,1 C 10,6 C 7,2 C 97 % 1006,0 hPa 0,0 l/m 0 min 0 min 0 W/m 16,1 km/h (3 Bft) 100,00 %
31.10.2023 22:04 11,2 C 10,6 C 7,2 C 97 % 1006,0 hPa 0,0 l/m 0 min 0 min 0 W/m 12,9 km/h (3 Bft) 100,00 %
31.10.2023 22:10 11,2 C 10,6 C 7,2 C 97 % 1006,0 hPa 0,0 l/m 0 min 0 min 0 W/m 22,5 km/h (4 Bft) 99,29 %
31.10.2023 22:12 11,2 C 10,6 C 7,2 C 97 % 1006,0 hPa 0,0 l/m 0 min 0 min 0 W/m 16,1 km/h (3 Bft) 100,00 %
31.10.2023 22:14 11,2 C 10,6 C 7,2 C 97 % 1005,9 hPa 0,0 l/m 0 min 0 min 0 W/m 12,9 km/h (3 Bft) 100,00 %
31.10.2023 22:16 11,2 C 10,6 C 7,2 C 97 % 1006,0 hPa 0,0 l/m 0 min 0 min 0 W/m 12,9 km/h (3 Bft) 97,87 %
31.10.2023 22:18 11,2 C 10,6 C 7,2 C 97 % 1006,0 hPa 0,0 l/m 0 min 0 min 0 W/m 16,1 km/h (3 Bft) 97,87 %
31.10.2023 22:20 11,2 C 10,6 C 7,2 C 97 % 1005,9 hPa 0,0 l/m 0 min 0 min 0 W/m 16,1 km/h (3 Bft) 97,87 %
31.10.2023 22:22 11,2 C 10,6 C 7,2 C 97 % 1006,0 hPa 0,0 l/m 0 min 0 min 0 W/m 16,1 km/h (3 Bft) 93,62 %
31.10.2023 22:24 11,2 C 10,6 C 7,2 C 97 % 1006,0 hPa 0,0 l/m 0 min 0 min 0 W/m 16,1 km/h (3 Bft) 95,65 %
31.10.2023 22:26 11,3 C 10,6 C 7,2 C 97 % 1006,0 hPa 0,0 l/m 0 min 0 min 0 W/m 12,9 km/h (3 Bft) 93,62 %
31.10.2023 22:28 11,3 C 10,6 C 7,2 C 97 % 1006,0 hPa 0,0 l/m 0 min 0 min 0 W/m 12,9 km/h (3 Bft) 95,74 %
31.10.2023 22:30 11,3 C 10,6 C 7,2 C 97 % 1006,0 hPa 0,0 l/m 0 min 0 min 0 W/m 9,7 km/h (2 Bft) 95,74 %
31.10.2023 22:32 11,3 C 10,6 C 7,2 C 97 % 1006,0 hPa 0,0 l/m 0 min 0 min 0 W/m 19,3 km/h (3 Bft) 93,62 %
31.10.2023 22:34 11,3 C 10,6 C 7,2 C 97 % 1006,1 hPa 0,0 l/m 0 min 0 min 0 W/m 22,5 km/h (4 Bft) 95,74 %
31.10.2023 22:36 11,3 C 10,6 C 7,2 C 97 % 1006,1 hPa 0,0 l/m 0 min 0 min 0 W/m 19,3 km/h (3 Bft) 93,62 %
31.10.2023 22:38 11,3 C 10,6 C 7,2 C 96 % 1006,1 hPa 0,0 l/m 0 min 0 min 0 W/m 22,5 km/h (4 Bft) 95,65 %
31.10.2023 22:40 11,3 C 10,6 C 7,2 C 96 % 1006,1 hPa 0,0 l/m 0 min 0 min 0 W/m 12,9 km/h (3 Bft) 93,62 %
31.10.2023 22:42 11,3 C 10,6 C 7,2 C 96 % 1006,1 hPa 0,0 l/m 0 min 0 min 0 W/m 25,7 km/h (4 Bft) 93,62 %
31.10.2023 22:44 11,4 C 11,1 C 7,2 C 96 % 1006,1 hPa 0,0 l/m 0 min 0 min 0 W/m 22,5 km/h (4 Bft) 97,87 %
31.10.2023 22:46 11,4 C 11,1 C 7,2 C 96 % 1006,1 hPa 0,0 l/m 0 min 0 min 0 W/m 19,3 km/h (3 Bft) 97,87 %
31.10.2023 22:48 11,4 C 11,1 C 7,2 C 96 % 1006,2 hPa 0,0 l/m 0 min 0 min 0 W/m 25,7 km/h (4 Bft) 95,74 %
31.10.2023 22:50 11,4 C 11,1 C 7,2 C 96 % 1006,1 hPa 0,0 l/m 0 min 0 min 0 W/m 16,1 km/h (3 Bft) 95,74 %
31.10.2023 22:52 11,4 C 11,1 C 7,2 C 96 % 1006,2 hPa 0,0 l/m 0 min 0 min 0 W/m 12,9 km/h (3 Bft) 97,83 %
31.10.2023 22:54 11,4 C 11,1 C 7,2 C 96 % 1006,2 hPa 0,0 l/m 0 min 0 min 0 W/m 16,1 km/h (3 Bft) 95,65 %
31.10.2023 22:56 11,4 C 11,1 C 7,2 C 96 % 1006,2 hPa 0,0 l/m 0 min 0 min 0 W/m 12,9 km/h (3 Bft) 93,62 %
31.10.2023 22:58 11,4 C 11,1 C 7,2 C 96 % 1006,3 hPa 0,0 l/m 0 min 0 min 0 W/m 19,3 km/h (3 Bft) 97,87 %
31.10.2023 23:00 11,4 C 11,1 C 7,2 C 96 % 1006,2 hPa 0,0 l/m 0 min 0 min 0 W/m 12,9 km/h (3 Bft) 97,83 %
31.10.2023 23:02 11,4 C 11,1 C 7,2 C 96 % 1006,3 hPa 0,0 l/m 0 min 0 min 0 W/m 19,3 km/h (3 Bft) 97,87 %
31.10.2023 23:04 11,4 C 11,1 C 7,2 C 96 % 1006,3 hPa 0,0 l/m 0 min 0 min 0 W/m 12,9 km/h (3 Bft) 95,65 %
31.10.2023 23:08 11,4 C 11,1 C 7,2 C 96 % 1006,1 hPa 0,0 l/m 0 min 0 min 0 W/m 16,1 km/h (3 Bft) 96,77 %
31.10.2023 23:09 11,5 C 11,1 C 7,2 C 96 % 1006,1 hPa 0,0 l/m 0 min 0 min 0 W/m 12,9 km/h (3 Bft) 95,83 %
31.10.2023 23:10 11,4 C 11,1 C 7,2 C 96 % 1006,1 hPa 0,0 l/m 0 min 0 min 0 W/m 12,9 km/h (3 Bft) 100,00 %
31.10.2023 23:14 11,4 C 11,1 C 7,2 C 96 % 1006,1 hPa 0,0 l/m 0 min 0 min 0 W/m 22,5 km/h (4 Bft) 94,83 %
31.10.2023 23:16 11,4 C 11,1 C 7,2 C 96 % 1006,2 hPa 0,0 l/m 0 min 0 min 0 W/m 22,5 km/h (4 Bft) 97,87 %
31.10.2023 23:18 11,4 C 11,1 C 7,2 C 96 % 1006,1 hPa 0,0 l/m 0 min 0 min 0 W/m 19,3 km/h (3 Bft) 97,83 %
31.10.2023 23:20 11,4 C 11,1 C 7,2 C 96 % 1006,1 hPa 0,0 l/m 0 min 0 min 0 W/m 9,7 km/h (2 Bft) 97,87 %
31.10.2023 23:22 11,4 C 10,6 C 7,2 C 96 % 1006,1 hPa 0,0 l/m 0 min 0 min 0 W/m 16,1 km/h (3 Bft) 97,87 %
31.10.2023 23:24 11,4 C 10,6 C 7,2 C 96 % 1006,0 hPa 0,0 l/m 0 min 0 min 0 W/m 19,3 km/h (3 Bft) 97,87 %
31.10.2023 23:26 11,4 C 10,6 C 7,2 C 96 % 1006,1 hPa 0,0 l/m 0 min 0 min 0 W/m 16,1 km/h (3 Bft) 97,87 %
31.10.2023 23:28 11,4 C 10,6 C 7,2 C 96 % 1006,1 hPa 0,0 l/m 0 min 0 min 0 W/m 19,3 km/h (3 Bft) 93,62 %
31.10.2023 23:30 11,4 C 10,6 C 7,2 C 96 % 1006,2 hPa 0,0 l/m 0 min 0 min 0 W/m 16,1 km/h (3 Bft) 97,87 %
31.10.2023 23:32 11,4 C 10,6 C 7,2 C 96 % 1006,2 hPa 0,0 l/m 0 min 0 min 0 W/m 12,9 km/h (3 Bft) 97,83 %
31.10.2023 23:34 11,4 C 10,6 C 7,2 C 96 % 1006,1 hPa 0,0 l/m 0 min 0 min 0 W/m 12,9 km/h (3 Bft) 97,87 %
31.10.2023 23:36 11,4 C 10,6 C 7,2 C 96 % 1006,2 hPa 0,0 l/m 0 min 0 min 0 W/m 9,7 km/h (2 Bft) 97,87 %
31.10.2023 23:38 11,4 C 10,6 C 7,2 C 96 % 1006,2 hPa 0,0 l/m 0 min 0 min 0 W/m 9,7 km/h (2 Bft) 97,87 %
31.10.2023 23:40 11,4 C 10,6 C 7,2 C 96 % 1006,2 hPa 0,0 l/m 0 min 0 min 0 W/m 12,9 km/h (3 Bft) 97,87 %
31.10.2023 23:42 11,4 C 10,6 C 7,2 C 96 % 1006,2 hPa 0,0 l/m 0 min 0 min 0 W/m 6,4 km/h (2 Bft) 97,87 %
31.10.2023 23:44 11,4 C 10,6 C 7,2 C 96 % 1006,1 hPa 0,0 l/m 0 min 0 min 0 W/m 9,7 km/h (2 Bft) 95,74 %
31.10.2023 23:46 11,4 C 10,6 C 7,2 C 96 % 1006,1 hPa 0,0 l/m 0 min 0 min 0 W/m 16,1 km/h (3 Bft) 97,83 %
31.10.2023 23:48 11,4 C 10,6 C 7,2 C 96 % 1006,2 hPa 0,0 l/m 0 min 0 min 0 W/m 6,4 km/h (2 Bft) 97,87 %
31.10.2023 23:50 11,4 C 10,6 C 7,2 C 95 % 1006,1 hPa 0,0 l/m 0 min 0 min 0 W/m 12,9 km/h (3 Bft) 100,00 %
31.10.2023 23:52 11,4 C 10,6 C 7,2 C 95 % 1006,1 hPa 0,0 l/m 0 min 0 min 0 W/m 16,1 km/h (3 Bft) 100,00 %
31.10.2023 23:54 11,4 C 10,6 C 7,2 C 95 % 1006,2 hPa 0,0 l/m 0 min 2 min 0 W/m 9,7 km/h (2 Bft) 97,37 %
31.10.2023 23:56 11,4 C 10,6 C 7,2 C 95 % 1006,1 hPa 0,2 l/m 0 min 2 min 0 W/m 9,7 km/h (2 Bft) 97,87 %
31.10.2023 23:58 11,4 C 10,6 C 7,2 C 95 % 1006,2 hPa 0,0 l/m 0 min 2 min 0 W/m 12,9 km/h (3 Bft) 100,00 %
_ Min-Zeit 07:30 02:46 01:10 15:28 00:00 - - - - 18:40 03:00
Minimum _ 10,1 C 9,4 C 6,7 C 82 % 995,0 hPa - - - - 0,0 km/h (0 Bft) 44,44 %
_ Max-Zeit 14:44 12:34 11:30 00:00 19:26 03:40 15:10 17:14 14:09 00:44 00:18
Maximum _ 13,4 C 13,3 C 9,4 C 99 % 1006,3 hPa 0,2 l/m 5 min 4 min 372 W/m 48,3 km/h
O-NO (6 Bft)
100,00 %
Durchschnitt _ 11,3 C 10,8 C 7,5 C 94 % 1002,4 hPa #2,2 l/m #1:23 h #1:53 h 114 W/m 13,6 km/h (3 Bft) 97,27 %
© 2023 W. Hausmann